Time,TemperatureF,DewpointF,PressureIn,WindDirection,WindDirectionDegrees,WindSpeedMPH,WindSpeedGustMPH,Humidity,HourlyPrecipIn,Conditions,Clouds,dailyrainin,SoftwareType,DateUTC
2013-02-04 00:00:00,27.5,1.5,29.82,West,270,0.0,2.5,32,0.00,,---,0.00,VWS V14.00,2013-02-04 05:00:00,
2013-02-04 00:02:00,27.7,1.7,29.82,West,270,2.9,2.9,32,0.00,,---,0.00,VWS V14.00,2013-02-04 05:02:00,
2013-02-04 00:04:00,27.7,1.7,29.82,West,270,3.4,4.9,32,0.00,,---,0.00,VWS V14.00,2013-02-04 05:04:00,
2013-02-04 00:06:00,27.7,1.7,29.85,West,270,5.6,5.6,32,0.00,,---,0.00,VWS V14.00,2013-02-04 05:06:00,
2013-02-04 00:11:00,27.9,2.5,29.85,West,270,4.9,4.9,33,0.00,,---,0.00,VWS V14.00,2013-02-04 05:11:00,
2013-02-04 00:12:00,27.9,2.5,29.85,West,270,2.9,4.9,33,0.00,,---,0.00,VWS V14.00,2013-02-04 05:12:00,
2013-02-04 00:16:00,27.9,3.2,29.85,West,270,2.5,2.9,34,0.00,,---,0.00,VWS V14.00,2013-02-04 05:16:00,
2013-02-04 00:17:00,28.0,3.3,29.85,West,270,2.5,5.8,34,0.00,,---,0.00,VWS V14.00,2013-02-04 05:17:00,
2013-02-04 00:19:00,28.0,3.3,29.85,West,270,3.6,3.6,34,0.00,,---,0.00,VWS V14.00,2013-02-04 05:19:00,
2013-02-04 00:22:00,28.2,3.5,29.85,West,270,2.9,3.6,34,0.00,,---,0.00,VWS V14.00,2013-02-04 05:22:00,
2013-02-04 00:23:00,28.4,3.6,29.85,West,270,5.4,5.4,34,0.00,,---,0.00,VWS V14.00,2013-02-04 05:23:00,
2013-02-04 00:28:00,28.6,4.4,29.85,West,270,2.7,4.0,35,0.00,,---,0.00,VWS V14.00,2013-02-04 05:28:00,
2013-02-04 00:30:00,28.8,4.6,29.85,West,270,2.9,3.4,35,0.00,,---,0.00,VWS V14.00,2013-02-04 05:30:00,
2013-02-04 00:33:00,28.9,5.3,29.85,West,270,3.4,7.2,36,0.00,,---,0.00,VWS V14.00,2013-02-04 05:33:00,
2013-02-04 00:35:00,29.1,5.5,29.85,NW,315,5.4,6.3,36,0.00,,---,0.00,VWS V14.00,2013-02-04 05:35:00,
2013-02-04 00:40:00,29.1,6.1,29.82,NW,315,4.3,8.7,37,0.00,,---,0.00,VWS V14.00,2013-02-04 05:40:00,
2013-02-04 00:41:00,29.1,6.1,29.82,West,270,5.4,5.4,37,0.00,,---,0.00,VWS V14.00,2013-02-04 05:41:00,
2013-02-04 00:45:00,29.3,6.3,29.82,WNW,292,6.0,7.8,37,0.00,,---,0.00,VWS V14.00,2013-02-04 05:45:00,
2013-02-04 00:46:00,29.3,6.3,29.82,WNW,292,3.1,7.4,37,0.00,,---,0.00,VWS V14.00,2013-02-04 05:46:00,
2013-02-04 00:48:00,29.3,6.3,29.82,NW,315,5.6,5.6,37,0.00,,---,0.00,VWS V14.00,2013-02-04 05:48:00,
2013-02-04 00:50:00,29.3,6.3,29.82,West,270,4.0,6.3,37,0.00,,---,0.00,VWS V14.00,2013-02-04 05:50:00,
2013-02-04 00:55:00,29.3,5.7,29.82,WNW,292,5.8,7.2,36,0.00,,---,0.00,VWS V14.00,2013-02-04 05:55:00,
2013-02-04 00:58:00,29.1,5.5,29.82,WNW,292,3.6,7.4,36,0.00,,---,0.00,VWS V14.00,2013-02-04 05:58:00,
2013-02-04 01:00:00,28.9,4.7,29.82,West,270,4.9,6.0,35,0.00,,---,0.00,VWS V14.00,2013-02-04 06:00:00,
2013-02-04 01:03:00,28.8,4.6,29.82,WNW,292,5.8,5.8,35,0.00,,---,0.00,VWS V14.00,2013-02-04 06:03:00,
2013-02-04 01:06:00,28.8,4.6,29.82,West,270,4.3,7.8,35,0.00,,---,0.00,VWS V14.00,2013-02-04 06:06:00,
2013-02-04 01:09:00,28.6,4.4,29.82,West,270,8.7,8.7,35,0.00,,---,0.00,VWS V14.00,2013-02-04 06:09:00,
2013-02-04 01:11:00,28.6,4.4,29.82,WNW,292,9.6,9.6,35,0.00,,---,0.00,VWS V14.00,2013-02-04 06:11:00,
2013-02-04 01:13:00,28.6,3.8,29.82,WNW,292,5.4,8.1,34,0.00,,---,0.00,VWS V14.00,2013-02-04 06:13:00,
2013-02-04 01:14:00,28.6,3.8,29.82,West,270,8.5,8.5,34,0.00,,---,0.00,VWS V14.00,2013-02-04 06:14:00,
2013-02-04 01:17:00,28.6,3.8,29.82,WNW,292,5.8,8.7,34,0.00,,---,0.00,VWS V14.00,2013-02-04 06:17:00,
2013-02-04 01:19:00,28.4,3.6,29.82,West,270,6.5,6.5,34,0.00,,---,0.00,VWS V14.00,2013-02-04 06:19:00,
2013-02-04 01:20:00,28.6,3.8,29.82,WNW,292,4.9,8.7,34,0.00,,---,0.00,VWS V14.00,2013-02-04 06:20:00,
2013-02-04 01:24:00,28.6,3.8,29.82,West,270,4.9,10.3,34,0.00,,---,0.00,VWS V14.00,2013-02-04 06:24:00,
2013-02-04 01:26:00,28.4,3.6,29.82,WNW,292,9.0,9.0,34,0.00,,---,0.00,VWS V14.00,2013-02-04 06:26:00,
2013-02-04 01:27:00,28.4,3.0,29.82,WNW,292,8.7,10.1,33,0.00,,---,0.00,VWS V14.00,2013-02-04 06:27:00,
2013-02-04 01:29:00,28.4,3.0,29.82,WNW,292,5.8,5.8,33,0.00,,---,0.00,VWS V14.00,2013-02-04 06:29:00,
2013-02-04 01:30:00,28.4,3.0,29.82,WNW,292,4.3,8.5,33,0.00,,---,0.00,VWS V14.00,2013-02-04 06:30:00,
2013-02-04 01:32:00,28.4,3.0,29.82,West,270,12.8,12.8,33,0.00,,---,0.00,VWS V14.00,2013-02-04 06:32:00,
2013-02-04 01:36:00,28.2,2.8,29.85,WNW,292,3.1,8.1,33,0.00,,---,0.00,VWS V14.00,2013-02-04 06:36:00,
2013-02-04 01:37:00,28.2,2.8,29.85,WSW,248,6.0,6.5,33,0.00,,---,0.00,VWS V14.00,2013-02-04 06:37:00,
2013-02-04 01:39:00,28.2,2.8,29.85,WNW,292,8.5,11.0,33,0.00,,---,0.00,VWS V14.00,2013-02-04 06:39:00,
2013-02-04 01:42:00,28.2,2.2,29.85,WNW,292,5.8,7.8,32,0.00,,---,0.00,VWS V14.00,2013-02-04 06:42:00,
2013-02-04 01:44:00,28.2,2.2,29.85,West,270,4.9,4.9,32,0.00,,---,0.00,VWS V14.00,2013-02-04 06:44:00,
2013-02-04 01:45:00,28.2,2.2,29.85,West,270,3.6,5.4,32,0.00,,---,0.00,VWS V14.00,2013-02-04 06:45:00,
2013-02-04 01:48:00,28.2,2.2,29.85,WNW,292,3.6,8.1,32,0.00,,---,0.00,VWS V14.00,2013-02-04 06:48:00,
2013-02-04 01:49:00,28.2,2.2,29.85,WNW,292,5.4,6.0,32,0.00,,---,0.00,VWS V14.00,2013-02-04 06:49:00,
2013-02-04 01:53:00,28.2,2.2,29.85,West,270,4.0,7.8,32,0.00,,---,0.00,VWS V14.00,2013-02-04 06:53:00,
2013-02-04 01:54:00,28.2,2.2,29.85,West,270,5.6,6.0,32,0.00,,---,0.00,VWS V14.00,2013-02-04 06:54:00,
2013-02-04 01:55:00,28.4,2.3,29.85,WNW,292,3.8,5.6,32,0.00,,---,0.00,VWS V14.00,2013-02-04 06:55:00,
2013-02-04 01:56:00,28.4,2.3,29.85,WNW,292,6.0,8.7,32,0.00,,---,0.00,VWS V14.00,2013-02-04 06:56:00,
2013-02-04 01:59:00,28.4,2.3,29.85,West,270,8.1,13.2,32,0.00,,---,0.00,VWS V14.00,2013-02-04 06:59:00,
2013-02-04 02:01:00,28.4,1.6,29.85,WNW,292,2.5,4.9,31,0.00,,---,0.00,VWS V14.00,2013-02-04 07:01:00,
2013-02-04 02:03:00,28.4,1.6,29.85,WSW,248,5.8,7.2,31,0.00,,---,0.00,VWS V14.00,2013-02-04 07:03:00,
2013-02-04 02:05:00,28.2,1.5,29.85,WNW,292,10.1,10.1,31,0.00,,---,0.00,VWS V14.00,2013-02-04 07:05:00,
2013-02-04 02:06:00,28.2,1.5,29.85,WNW,292,8.5,10.1,31,0.00,,---,0.00,VWS V14.00,2013-02-04 07:06:00,
2013-02-04 02:10:00,28.0,1.3,29.85,West,270,5.6,5.6,31,0.00,,---,0.00,VWS V14.00,2013-02-04 07:10:00,
2013-02-04 02:11:00,28.0,1.3,29.85,WNW,292,5.6,10.7,31,0.00,,---,0.00,VWS V14.00,2013-02-04 07:11:00,
2013-02-04 02:15:00,28.0,1.3,29.85,West,270,3.8,5.6,31,0.00,,---,0.00,VWS V14.00,2013-02-04 07:15:00,
2013-02-04 02:17:00,28.0,1.3,29.85,West,270,4.3,5.8,31,0.00,,---,0.00,VWS V14.00,2013-02-04 07:17:00,
2013-02-04 02:18:00,27.9,1.2,29.85,WNW,292,4.3,6.3,31,0.00,,---,0.00,VWS V14.00,2013-02-04 07:18:00,
2013-02-04 02:23:00,27.7,-1.2,29.85,WNW,292,4.3,7.8,28,0.00,,---,0.00,VWS V14.00,2013-02-04 07:23:00,
2013-02-04 02:24:00,27.7,-1.2,29.85,NNW,338,10.3,10.3,28,0.00,,---,0.00,VWS V14.00,2013-02-04 07:24:00,
2013-02-04 02:26:00,27.7,-1.2,29.85,NW,315,6.7,6.9,28,0.00,,---,0.00,VWS V14.00,2013-02-04 07:26:00,
2013-02-04 02:29:00,27.5,-2.9,29.85,NNW,338,6.5,9.8,26,0.00,,---,0.00,VWS V14.00,2013-02-04 07:29:00,
2013-02-04 02:30:00,27.7,-2.7,29.85,NW,315,8.5,8.5,26,0.00,,---,0.00,VWS V14.00,2013-02-04 07:30:00,
2013-02-04 02:31:00,27.5,-2.9,29.85,West,270,6.3,8.5,26,0.00,,---,0.00,VWS V14.00,2013-02-04 07:31:00,
2013-02-04 02:34:00,27.5,-2.9,29.85,WNW,292,3.8,11.0,26,0.00,,---,0.00,VWS V14.00,2013-02-04 07:34:00,
2013-02-04 02:37:00,27.1,-3.2,29.85,West,270,3.6,6.9,26,0.00,,---,0.00,VWS V14.00,2013-02-04 07:37:00,
2013-02-04 02:38:00,27.1,-3.2,29.85,WNW,292,11.9,11.9,26,0.00,,---,0.00,VWS V14.00,2013-02-04 07:38:00,
2013-02-04 02:39:00,27.1,-3.2,29.85,SW,225,5.8,11.9,26,0.00,,---,0.00,VWS V14.00,2013-02-04 07:39:00,
2013-02-04 02:41:00,27.0,-3.3,29.85,West,270,5.6,11.2,26,0.00,,---,0.00,VWS V14.00,2013-02-04 07:41:00,
2013-02-04 02:43:00,27.0,-5.9,29.85,WNW,292,10.3,13.2,23,0.00,,---,0.00,VWS V14.00,2013-02-04 07:43:00,
2013-02-04 02:44:00,27.0,-5.9,29.85,WNW,292,10.3,14.3,23,0.00,,---,0.00,VWS V14.00,2013-02-04 07:44:00,
2013-02-04 02:47:00,27.0,-5.9,29.85,WNW,292,3.6,6.5,23,0.00,,---,0.00,VWS V14.00,2013-02-04 07:47:00,
2013-02-04 02:49:00,26.8,-6.0,29.85,WSW,248,3.6,3.8,23,0.00,,---,0.00,VWS V14.00,2013-02-04 07:49:00,
2013-02-04 02:50:00,26.6,-5.3,29.85,West,270,7.4,7.4,24,0.00,,---,0.00,VWS V14.00,2013-02-04 07:50:00,
2013-02-04 02:53:00,26.4,-5.5,29.85,WNW,292,5.6,6.0,24,0.00,,---,0.00,VWS V14.00,2013-02-04 07:53:00,
2013-02-04 02:54:00,26.4,-5.5,29.85,WNW,292,4.9,6.3,24,0.00,,---,0.00,VWS V14.00,2013-02-04 07:54:00,
2013-02-04 02:56:00,26.1,-5.8,29.85,WNW,292,5.8,6.5,24,0.00,,---,0.00,VWS V14.00,2013-02-04 07:56:00,
2013-02-04 02:57:00,26.1,-5.8,29.85,West,270,4.9,8.7,24,0.00,,---,0.00,VWS V14.00,2013-02-04 07:57:00,
2013-02-04 02:59:00,25.9,-5.9,29.85,West,270,6.3,6.3,24,0.00,,---,0.00,VWS V14.00,2013-02-04 07:59:00,
2013-02-04 03:02:00,25.7,-6.1,29.85,West,270,7.2,7.2,24,0.00,,---,0.00,VWS V14.00,2013-02-04 08:02:00,
2013-02-04 03:04:00,25.7,-6.1,29.85,WNW,292,7.4,7.8,24,0.00,,---,0.00,VWS V14.00,2013-02-04 08:04:00,
2013-02-04 03:07:00,25.7,-6.1,29.85,WSW,248,6.3,10.7,24,0.00,,---,0.00,VWS V14.00,2013-02-04 08:07:00,
2013-02-04 03:08:00,25.7,-6.1,29.85,WSW,248,6.5,9.8,24,0.00,,---,0.00,VWS V14.00,2013-02-04 08:08:00,
2013-02-04 03:10:00,25.7,-6.1,29.85,WSW,248,3.8,9.4,24,0.00,,---,0.00,VWS V14.00,2013-02-04 08:10:00,
2013-02-04 03:12:00,25.7,-6.1,29.85,WSW,248,8.1,10.7,24,0.00,,---,0.00,VWS V14.00,2013-02-04 08:12:00,
2013-02-04 03:15:00,25.7,-6.1,29.85,WNW,292,5.4,8.5,24,0.00,,---,0.00,VWS V14.00,2013-02-04 08:15:00,
2013-02-04 03:16:00,25.7,-6.1,29.85,NNW,338,11.0,11.0,24,0.00,,---,0.00,VWS V14.00,2013-02-04 08:16:00,
2013-02-04 03:17:00,25.7,-6.1,29.85,WSW,248,8.7,13.0,24,0.00,,---,0.00,VWS V14.00,2013-02-04 08:17:00,
2013-02-04 03:19:00,25.7,-6.1,29.85,WNW,292,11.9,13.2,24,0.00,,---,0.00,VWS V14.00,2013-02-04 08:19:00,
2013-02-04 03:23:00,25.5,-6.2,29.85,WSW,248,4.0,6.3,24,0.00,,---,0.00,VWS V14.00,2013-02-04 08:23:00,
2013-02-04 03:25:00,25.5,-6.2,29.85,WNW,292,4.0,7.4,24,0.00,,---,0.00,VWS V14.00,2013-02-04 08:25:00,
2013-02-04 03:27:00,25.5,-6.2,29.85,WNW,292,6.0,10.1,24,0.00,,---,0.00,VWS V14.00,2013-02-04 08:27:00,
2013-02-04 03:28:00,25.5,-6.2,29.85,WNW,292,6.3,12.5,24,0.00,,---,0.00,VWS V14.00,2013-02-04 08:28:00,
2013-02-04 03:30:00,25.5,-6.2,29.85,WNW,292,5.8,6.5,24,0.00,,---,0.00,VWS V14.00,2013-02-04 08:30:00,
2013-02-04 03:33:00,25.5,-6.2,29.85,WNW,292,5.8,12.8,24,0.00,,---,0.00,VWS V14.00,2013-02-04 08:33:00,
2013-02-04 03:35:00,25.3,-6.4,29.85,WNW,292,7.4,7.8,24,0.00,,---,0.00,VWS V14.00,2013-02-04 08:35:00,
2013-02-04 03:37:00,25.3,-6.4,29.85,West,270,7.6,8.5,24,0.00,,---,0.00,VWS V14.00,2013-02-04 08:37:00,
2013-02-04 03:39:00,25.3,-6.4,29.85,West,270,6.0,10.5,24,0.00,,---,0.00,VWS V14.00,2013-02-04 08:39:00,
2013-02-04 03:40:00,25.3,-6.4,29.85,WSW,248,8.5,8.5,24,0.00,,---,0.00,VWS V14.00,2013-02-04 08:40:00,
2013-02-04 03:42:00,25.3,-6.4,29.85,NNW,338,10.7,12.3,24,0.00,,---,0.00,VWS V14.00,2013-02-04 08:42:00,
2013-02-04 03:45:00,25.2,-6.6,29.85,West,270,6.7,9.2,24,0.00,,---,0.00,VWS V14.00,2013-02-04 08:45:00,
2013-02-04 03:47:00,25.2,-6.6,29.85,West,270,6.3,10.3,24,0.00,,---,0.00,VWS V14.00,2013-02-04 08:47:00,
2013-02-04 03:48:00,25.2,-6.6,29.85,WNW,292,15.2,15.2,24,0.00,,---,0.00,VWS V14.00,2013-02-04 08:48:00,
2013-02-04 03:50:00,25.0,-6.7,29.85,WSW,248,6.3,7.8,24,0.00,,---,0.00,VWS V14.00,2013-02-04 08:50:00,
2013-02-04 03:52:00,25.0,-6.7,29.88,West,270,5.4,7.4,24,0.00,,---,0.00,VWS V14.00,2013-02-04 08:52:00,
2013-02-04 03:53:00,25.0,-6.7,29.88,WSW,248,8.7,9.8,24,0.00,,---,0.00,VWS V14.00,2013-02-04 08:53:00,
2013-02-04 03:56:00,25.0,-6.7,29.88,West,270,4.9,10.3,24,0.00,,---,0.00,VWS V14.00,2013-02-04 08:56:00,
2013-02-04 03:57:00,25.0,-6.7,29.88,NNW,338,12.1,13.0,24,0.00,,---,0.00,VWS V14.00,2013-02-04 08:57:00,
2013-02-04 03:58:00,25.0,-6.7,29.88,West,270,7.4,12.1,24,0.00,,---,0.00,VWS V14.00,2013-02-04 08:58:00,
2013-02-04 03:59:00,25.0,-6.7,29.88,West,270,7.2,12.3,24,0.00,,---,0.00,VWS V14.00,2013-02-04 08:59:00,
2013-02-04 04:03:00,25.0,-6.7,29.88,WNW,292,8.1,8.7,24,0.00,,---,0.00,VWS V14.00,2013-02-04 09:03:00,
2013-02-04 04:05:00,25.0,-6.7,29.88,WSW,248,4.9,8.5,24,0.00,,---,0.00,VWS V14.00,2013-02-04 09:05:00,
2013-02-04 04:07:00,24.8,-6.9,29.91,NNW,338,4.0,5.4,24,0.00,,---,0.00,VWS V14.00,2013-02-04 09:07:00,
2013-02-04 04:08:00,24.8,-6.9,29.91,WNW,292,6.0,6.0,24,0.00,,---,0.00,VWS V14.00,2013-02-04 09:08:00,
2013-02-04 04:10:00,24.8,-6.9,29.91,West,270,3.8,10.3,24,0.00,,---,0.00,VWS V14.00,2013-02-04 09:10:00,
2013-02-04 04:13:00,24.8,-6.9,29.91,WSW,248,6.0,9.6,24,0.00,,---,0.00,VWS V14.00,2013-02-04 09:13:00,
2013-02-04 04:14:00,24.8,-6.9,29.91,WSW,248,12.3,12.3,24,0.00,,---,0.00,VWS V14.00,2013-02-04 09:14:00,
2013-02-04 04:15:00,24.8,-6.9,29.91,WNW,292,5.6,12.3,24,0.00,,---,0.00,VWS V14.00,2013-02-04 09:15:00,
2013-02-04 04:18:00,24.6,-7.0,29.91,NW,315,9.8,10.7,24,0.00,,---,0.00,VWS V14.00,2013-02-04 09:18:00,
2013-02-04 04:20:00,24.6,-7.0,29.91,West,270,10.3,12.1,24,0.00,,---,0.00,VWS V14.00,2013-02-04 09:20:00,
2013-02-04 04:22:00,24.6,-7.0,29.91,WNW,292,6.3,7.4,24,0.00,,---,0.00,VWS V14.00,2013-02-04 09:22:00,
2013-02-04 04:23:00,24.6,-7.0,29.91,WNW,292,7.8,11.0,24,0.00,,---,0.00,VWS V14.00,2013-02-04 09:23:00,
2013-02-04 04:24:00,24.6,-7.0,29.91,WNW,292,4.0,7.8,24,0.00,,---,0.00,VWS V14.00,2013-02-04 09:24:00,
2013-02-04 04:28:00,24.4,-7.2,29.91,WNW,292,5.4,8.1,24,0.00,,---,0.00,VWS V14.00,2013-02-04 09:28:00,
2013-02-04 04:29:00,24.4,-7.2,29.91,WNW,292,4.9,5.8,24,0.00,,---,0.00,VWS V14.00,2013-02-04 09:29:00,
2013-02-04 04:30:00,24.4,-7.2,29.91,WNW,292,10.5,10.5,24,0.00,,---,0.00,VWS V14.00,2013-02-04 09:30:00,
2013-02-04 04:34:00,24.4,-7.2,29.91,WNW,292,7.8,11.2,24,0.00,,---,0.00,VWS V14.00,2013-02-04 09:34:00,
2013-02-04 04:35:00,24.4,-7.2,29.91,WNW,292,10.1,10.1,24,0.00,,---,0.00,VWS V14.00,2013-02-04 09:35:00,
2013-02-04 04:37:00,24.4,-7.2,29.91,WNW,292,7.4,7.4,24,0.00,,---,0.00,VWS V14.00,2013-02-04 09:37:00,
2013-02-04 04:38:00,24.4,-7.2,29.91,WSW,248,4.9,10.1,24,0.00,,---,0.00,VWS V14.00,2013-02-04 09:38:00,
2013-02-04 04:39:00,24.4,-7.2,29.91,WNW,292,5.6,6.3,24,0.00,,---,0.00,VWS V14.00,2013-02-04 09:39:00,
2013-02-04 04:40:00,24.3,-7.3,29.91,SSW,202,5.6,13.0,24,0.00,,---,0.00,VWS V14.00,2013-02-04 09:40:00,
2013-02-04 04:43:00,24.4,-7.2,29.91,WSW,248,7.8,7.8,24,0.00,,---,0.00,VWS V14.00,2013-02-04 09:43:00,
2013-02-04 04:44:00,24.4,-7.2,29.91,WNW,292,5.6,13.0,24,0.00,,---,0.00,VWS V14.00,2013-02-04 09:44:00,
2013-02-04 04:45:00,24.3,-7.3,29.91,WNW,292,4.9,7.6,24,0.00,,---,0.00,VWS V14.00,2013-02-04 09:45:00,
2013-02-04 04:49:00,24.3,-7.3,29.91,WSW,248,8.1,9.4,24,0.00,,---,0.00,VWS V14.00,2013-02-04 09:49:00,
2013-02-04 04:50:00,24.3,-7.3,29.91,WNW,292,4.3,8.1,24,0.00,,---,0.00,VWS V14.00,2013-02-04 09:50:00,
2013-02-04 04:54:00,24.3,-7.3,29.91,West,270,6.7,13.2,24,0.00,,---,0.00,VWS V14.00,2013-02-04 09:54:00,
2013-02-04 04:55:00,24.3,-7.3,29.91,NW,315,10.5,10.5,24,0.00,,---,0.00,VWS V14.00,2013-02-04 09:55:00,
2013-02-04 04:56:00,24.3,-7.3,29.91,WNW,292,10.3,10.5,24,0.00,,---,0.00,VWS V14.00,2013-02-04 09:56:00,
2013-02-04 04:58:00,24.3,-7.3,29.91,WNW,292,5.6,7.4,24,0.00,,---,0.00,VWS V14.00,2013-02-04 09:58:00,
2013-02-04 05:00:00,24.1,-7.5,29.91,WNW,292,5.4,9.8,24,0.00,,---,0.00,VWS V14.00,2013-02-04 10:00:00,
2013-02-04 05:01:00,24.1,-7.5,29.91,NNW,338,4.3,6.0,24,0.00,,---,0.00,VWS V14.00,2013-02-04 10:01:00,
2013-02-04 05:02:00,24.1,-7.5,29.91,NW,315,6.5,6.5,24,0.00,,---,0.00,VWS V14.00,2013-02-04 10:02:00,
2013-02-04 05:05:00,24.1,-7.5,29.91,WSW,248,6.0,7.8,24,0.00,,---,0.00,VWS V14.00,2013-02-04 10:05:00,
2013-02-04 05:07:00,24.1,-7.5,29.91,WSW,248,8.1,12.1,24,0.00,,---,0.00,VWS V14.00,2013-02-04 10:07:00,
2013-02-04 05:08:00,24.1,-7.5,29.91,WNW,292,5.6,10.1,24,0.00,,---,0.00,VWS V14.00,2013-02-04 10:08:00,
2013-02-04 05:12:00,23.9,-7.6,29.91,West,270,11.0,11.0,24,0.00,,---,0.00,VWS V14.00,2013-02-04 10:12:00,
2013-02-04 05:15:00,23.9,-7.6,29.91,NNW,338,6.5,9.8,24,0.00,,---,0.00,VWS V14.00,2013-02-04 10:15:00,
2013-02-04 05:19:00,23.9,-7.6,29.91,NW,315,8.5,10.3,24,0.00,,---,0.00,VWS V14.00,2013-02-04 10:19:00,
2013-02-04 05:22:00,23.9,-7.6,29.91,WNW,292,6.3,9.6,24,0.00,,---,0.00,VWS V14.00,2013-02-04 10:22:00,
2013-02-04 05:25:00,23.9,-7.6,29.91,NNW,338,10.1,10.1,24,0.00,,---,0.00,VWS V14.00,2013-02-04 10:25:00,
2013-02-04 05:26:00,23.9,-7.6,29.91,WNW,292,8.7,12.5,24,0.00,,---,0.00,VWS V14.00,2013-02-04 10:26:00,
2013-02-04 05:31:00,23.9,-7.6,29.91,West,270,5.4,6.3,24,0.00,,---,0.00,VWS V14.00,2013-02-04 10:31:00,
2013-02-04 05:32:00,23.9,-7.6,29.91,West,270,6.0,6.0,24,0.00,,---,0.00,VWS V14.00,2013-02-04 10:32:00,
2013-02-04 05:33:00,23.9,-7.6,29.91,NW,315,6.5,7.2,24,0.00,,---,0.00,VWS V14.00,2013-02-04 10:33:00,
2013-02-04 05:36:00,23.9,-7.6,29.91,WNW,292,6.3,7.4,24,0.00,,---,0.00,VWS V14.00,2013-02-04 10:36:00,
2013-02-04 05:37:00,23.9,-7.6,29.91,WNW,292,8.7,8.7,24,0.00,,---,0.00,VWS V14.00,2013-02-04 10:37:00,
2013-02-04 05:39:00,23.7,-7.8,29.91,NW,315,3.8,6.5,24,0.00,,---,0.00,VWS V14.00,2013-02-04 10:39:00,
2013-02-04 05:43:00,23.7,-7.8,29.91,NW,315,6.0,9.6,24,0.00,,---,0.00,VWS V14.00,2013-02-04 10:43:00,
2013-02-04 05:44:00,23.7,-7.8,29.91,WNW,292,3.4,9.8,24,0.00,,---,0.00,VWS V14.00,2013-02-04 10:44:00,
2013-02-04 05:46:00,23.7,-7.8,29.91,West,270,10.7,11.9,24,0.00,,---,0.00,VWS V14.00,2013-02-04 10:46:00,
2013-02-04 05:47:00,23.9,-7.6,29.91,NW,315,10.5,10.7,24,0.00,,---,0.00,VWS V14.00,2013-02-04 10:47:00,
2013-02-04 05:49:00,23.7,-7.8,29.91,NW,315,6.0,13.2,24,0.00,,---,0.00,VWS V14.00,2013-02-04 10:49:00,
2013-02-04 05:53:00,23.7,-7.8,29.94,West,270,3.8,12.1,24,0.00,,---,0.00,VWS V14.00,2013-02-04 10:53:00,
2013-02-04 05:54:00,23.7,-7.8,29.94,NNW,338,10.5,10.5,24,0.00,,---,0.00,VWS V14.00,2013-02-04 10:54:00,
2013-02-04 05:59:00,23.7,-7.8,29.94,WSW,248,3.4,9.6,24,0.00,,---,0.00,VWS V14.00,2013-02-04 10:59:00,
2013-02-04 06:00:00,23.7,-7.8,29.94,WNW,292,9.8,16.8,24,0.00,,---,0.00,VWS V14.00,2013-02-04 11:00:00,
2013-02-04 06:04:00,23.7,-7.8,29.94,WNW,292,8.7,13.0,24,0.00,,---,0.00,VWS V14.00,2013-02-04 11:04:00,
2013-02-04 06:08:00,23.5,-7.9,29.94,WNW,292,10.1,10.1,24,0.00,,---,0.00,VWS V14.00,2013-02-04 11:08:00,
2013-02-04 06:09:00,23.5,-7.9,29.94,WNW,292,6.3,10.3,24,0.00,,---,0.00,VWS V14.00,2013-02-04 11:09:00,
2013-02-04 06:11:00,23.5,-7.9,29.94,WNW,292,6.0,8.5,24,0.00,,---,0.00,VWS V14.00,2013-02-04 11:11:00,
2013-02-04 06:14:00,23.5,-7.9,29.94,WNW,292,7.8,17.7,24,0.00,,---,0.00,VWS V14.00,2013-02-04 11:14:00,
2013-02-04 06:19:00,23.5,-7.9,29.94,NW,315,7.8,11.0,24,0.00,,---,0.00,VWS V14.00,2013-02-04 11:19:00,
2013-02-04 06:20:00,23.5,-7.9,29.94,West,270,10.1,10.1,24,0.00,,---,0.00,VWS V14.00,2013-02-04 11:20:00,
2013-02-04 06:25:00,23.5,-7.9,29.97,West,270,12.8,12.8,24,0.00,,---,0.00,VWS V14.00,2013-02-04 11:25:00,
2013-02-04 06:29:00,23.5,-7.9,29.97,WNW,292,7.8,7.8,24,0.00,,---,0.00,VWS V14.00,2013-02-04 11:29:00,
2013-02-04 06:30:00,23.5,-7.9,29.97,NNW,338,11.2,11.2,24,0.00,,---,0.00,VWS V14.00,2013-02-04 11:30:00,
2013-02-04 06:35:00,23.5,-7.9,29.97,NNW,338,6.7,8.5,24,0.00,,---,0.00,VWS V14.00,2013-02-04 11:35:00,
2013-02-04 06:40:00,23.5,-7.9,29.97,WNW,292,5.8,10.3,24,0.00,,---,0.00,VWS V14.00,2013-02-04 11:40:00,
2013-02-04 06:44:00,23.5,-7.9,29.97,NE,45,5.4,8.5,24,0.00,,---,0.00,VWS V14.00,2013-02-04 11:44:00,
2013-02-04 06:46:00,23.5,-7.9,29.97,West,270,3.4,6.3,24,0.00,,---,0.00,VWS V14.00,2013-02-04 11:46:00,
2013-02-04 06:48:00,23.4,-8.1,29.97,WNW,292,3.1,6.5,24,0.00,,---,0.00,VWS V14.00,2013-02-04 11:48:00,
2013-02-04 06:52:00,23.4,-8.1,29.97,WNW,292,8.7,8.7,24,0.00,,---,0.00,VWS V14.00,2013-02-04 11:52:00,
2013-02-04 06:56:00,23.4,-8.1,29.97,NNW,338,6.0,7.6,24,0.00,,---,0.00,VWS V14.00,2013-02-04 11:56:00,
2013-02-04 06:58:00,23.2,-8.2,29.97,WNW,292,4.9,4.9,24,0.00,,---,0.00,VWS V14.00,2013-02-04 11:58:00,
2013-02-04 06:59:00,23.2,-8.2,29.97,West,270,4.9,4.9,24,0.00,,---,0.00,VWS V14.00,2013-02-04 11:59:00,
2013-02-04 07:04:00,23.0,-7.6,29.97,WNW,292,6.0,6.0,25,0.00,,---,0.00,VWS V14.00,2013-02-04 12:04:00,
2013-02-04 07:09:00,23.0,-7.6,29.97,WNW,292,5.8,7.4,25,0.00,,---,0.00,VWS V14.00,2013-02-04 12:09:00,
2013-02-04 07:10:00,23.0,-7.6,29.97,WNW,292,6.3,6.3,25,0.00,,---,0.00,VWS V14.00,2013-02-04 12:10:00,
2013-02-04 07:15:00,23.2,-8.2,29.97,WSW,248,5.8,6.0,24,0.00,,---,0.00,VWS V14.00,2013-02-04 12:15:00,
2013-02-04 07:16:00,23.4,-8.1,29.97,West,270,4.3,5.8,24,0.00,,---,0.00,VWS V14.00,2013-02-04 12:16:00,
2013-02-04 07:18:00,23.7,-7.8,29.97,WSW,248,5.8,5.8,24,0.00,,---,0.00,VWS V14.00,2013-02-04 12:18:00,
2013-02-04 07:21:00,24.6,-7.0,29.97,WSW,248,2.5,5.4,24,0.00,,---,0.00,VWS V14.00,2013-02-04 12:21:00,
2013-02-04 07:23:00,24.6,-7.0,29.97,West,270,3.6,4.9,24,0.00,,---,0.00,VWS V14.00,2013-02-04 12:23:00,
2013-02-04 07:26:00,25.2,-6.6,29.97,West,270,5.4,6.3,24,0.00,,---,0.00,VWS V14.00,2013-02-04 12:26:00,
2013-02-04 07:32:00,25.2,-6.6,29.97,WSW,248,5.6,7.4,24,0.00,,---,0.00,VWS V14.00,2013-02-04 12:32:00,
2013-02-04 07:33:00,25.3,-6.4,29.97,WNW,292,6.5,6.5,24,0.00,,---,0.00,VWS V14.00,2013-02-04 12:33:00,
2013-02-04 07:36:00,32.0,0.0,29.97,WSW,248,4.3,60.2,0,59.06,,---,99.99,VWS V14.00,2013-02-04 12:36:00,
2013-02-04 07:37:00,25.9,-5.9,29.97,West,270,6.3,6.3,24,59.06,,---,99.99,VWS V14.00,2013-02-04 12:37:00,
2013-02-04 07:39:00,25.9,-5.9,29.97,WNW,292,7.6,7.6,24,59.06,,---,99.99,VWS V14.00,2013-02-04 12:39:00,
2013-02-04 07:40:00,26.1,-5.8,29.97,West,270,4.9,7.6,24,59.06,,---,99.99,VWS V14.00,2013-02-04 12:40:00,
2013-02-04 07:42:00,25.9,-5.9,29.97,WNW,292,5.4,9.6,24,59.06,,---,99.99,VWS V14.00,2013-02-04 12:42:00,
2013-02-04 07:46:00,27.0,-5.9,29.97,WNW,292,3.8,5.4,23,59.06,,---,99.99,VWS V14.00,2013-02-04 12:46:00,
2013-02-04 07:49:00,26.6,-5.3,29.97,WNW,292,2.7,6.3,24,59.06,,---,99.99,VWS V14.00,2013-02-04 12:49:00,
2013-02-04 07:51:00,26.6,-5.3,29.97,West,270,5.6,5.6,24,59.06,,---,99.99,VWS V14.00,2013-02-04 12:51:00,
2013-02-04 07:54:00,26.8,-6.0,29.97,WSW,248,5.6,7.2,23,59.06,,---,99.99,VWS V14.00,2013-02-04 12:54:00,
2013-02-04 08:00:00,27.0,-5.9,29.97,West,270,7.4,7.4,23,59.06,,---,99.99,VWS V14.00,2013-02-04 13:00:00,
2013-02-04 08:01:00,27.0,-5.9,29.97,WNW,292,6.0,7.4,23,59.06,,---,99.99,VWS V14.00,2013-02-04 13:01:00,
2013-02-04 08:06:00,27.0,-5.9,29.97,WSW,248,4.0,7.8,23,59.06,,---,99.99,VWS V14.00,2013-02-04 13:06:00,
2013-02-04 08:07:00,27.0,-5.9,29.97,WSW,248,6.3,8.7,23,59.06,,---,99.99,VWS V14.00,2013-02-04 13:07:00,
2013-02-04 08:12:00,26.6,-5.3,29.97,West,270,9.8,12.3,24,59.06,,---,99.99,VWS V14.00,2013-02-04 13:12:00,
2013-02-04 08:14:00,26.6,-5.3,29.97,West,270,4.9,11.0,24,59.06,,---,99.99,VWS V14.00,2013-02-04 13:14:00,
2013-02-04 08:16:00,27.1,-5.7,29.97,West,270,7.8,7.8,23,59.06,,---,99.99,VWS V14.00,2013-02-04 13:16:00,
2013-02-04 08:17:00,27.1,-5.7,29.97,West,270,8.7,8.7,23,59.06,,---,99.99,VWS V14.00,2013-02-04 13:17:00,
2013-02-04 08:22:00,27.5,-5.4,30.03,West,270,6.5,6.5,23,59.06,,---,99.99,VWS V14.00,2013-02-04 13:22:00,
2013-02-04 08:24:00,27.7,-5.3,30.03,WNW,292,5.8,7.8,23,59.06,,---,99.99,VWS V14.00,2013-02-04 13:24:00,
2013-02-04 08:27:00,27.5,-5.4,30.03,West,270,4.0,7.8,23,59.06,,---,99.99,VWS V14.00,2013-02-04 13:27:00,
2013-02-04 08:30:00,27.5,-5.4,30.03,West,270,9.8,11.9,23,59.06,,---,99.99,VWS V14.00,2013-02-04 13:30:00,
2013-02-04 08:35:00,27.7,-5.3,30.03,WSW,248,4.9,8.7,23,33.30,,---,60.16,VWS V14.00,2013-02-04 13:35:00,
2013-02-04 08:36:00,27.7,-5.3,30.03,West,270,9.8,9.8,23,33.30,,---,60.16,VWS V14.00,2013-02-04 13:36:00,
2013-02-04 08:41:00,27.9,-5.1,30.03,WSW,248,4.0,11.2,23,33.30,,---,60.16,VWS V14.00,2013-02-04 13:41:00,
2013-02-04 08:43:00,28.0,-5.0,30.03,West,270,8.7,12.3,23,33.30,,---,60.16,VWS V14.00,2013-02-04 13:43:00,
2013-02-04 08:46:00,28.2,-4.8,30.03,WNW,292,6.0,9.6,23,33.30,,---,60.16,VWS V14.00,2013-02-04 13:46:00,
2013-02-04 08:48:00,28.6,-4.5,30.03,West,270,5.8,6.5,23,33.30,,---,60.16,VWS V14.00,2013-02-04 13:48:00,
2013-02-04 08:49:00,28.6,-4.5,30.03,WNW,292,7.8,8.5,23,33.30,,---,60.16,VWS V14.00,2013-02-04 13:49:00,
2013-02-04 08:53:00,27.9,-5.1,30.03,WSW,248,13.2,13.2,23,33.30,,---,60.16,VWS V14.00,2013-02-04 13:53:00,
2013-02-04 08:55:00,28.2,-4.8,30.03,WNW,292,5.4,10.7,23,33.30,,---,60.16,VWS V14.00,2013-02-04 13:55:00,
2013-02-04 08:58:00,28.2,-4.8,30.03,West,270,11.0,13.0,23,33.30,,---,60.16,VWS V14.00,2013-02-04 13:58:00,
2013-02-04 08:59:00,27.9,-5.1,30.03,West,270,8.1,11.0,23,33.30,,---,60.16,VWS V14.00,2013-02-04 13:59:00,
2013-02-04 09:00:00,28.2,-4.8,30.03,West,270,6.3,8.5,23,33.30,,---,60.16,VWS V14.00,2013-02-04 14:00:00,
2013-02-04 09:03:00,28.0,-5.0,30.03,WNW,292,10.1,12.5,23,33.30,,---,60.16,VWS V14.00,2013-02-04 14:03:00,
2013-02-04 09:05:00,28.2,-4.8,30.03,West,270,3.1,7.4,23,33.30,,---,60.16,VWS V14.00,2013-02-04 14:05:00,
2013-02-04 09:10:00,28.4,-4.7,30.03,WNW,292,11.0,12.3,23,33.30,,---,60.16,VWS V14.00,2013-02-04 14:10:00,
2013-02-04 09:12:00,29.1,-4.1,30.03,West,270,6.5,9.8,23,33.30,,---,60.16,VWS V14.00,2013-02-04 14:12:00,
2013-02-04 09:13:00,29.3,-3.9,30.03,WNW,292,5.8,10.5,23,33.30,,---,60.16,VWS V14.00,2013-02-04 14:13:00,
2013-02-04 09:15:00,29.1,-4.1,30.03,West,270,5.4,8.7,23,33.30,,---,60.16,VWS V14.00,2013-02-04 14:15:00,
2013-02-04 09:17:00,29.1,-4.1,30.03,West,270,10.3,10.3,23,33.30,,---,60.16,VWS V14.00,2013-02-04 14:17:00,
2013-02-04 09:20:00,29.3,-3.9,30.03,West,270,2.9,10.1,23,33.30,,---,60.16,VWS V14.00,2013-02-04 14:20:00,
2013-02-04 09:23:00,29.1,-4.1,30.03,WNW,292,17.5,17.5,23,33.30,,---,60.16,VWS V14.00,2013-02-04 14:23:00,
2013-02-04 09:25:00,28.8,-4.3,30.03,West,270,5.8,8.1,23,33.30,,---,60.16,VWS V14.00,2013-02-04 14:25:00,
2013-02-04 09:29:00,29.1,-4.1,30.03,WSW,248,10.3,10.3,23,33.30,,---,60.16,VWS V14.00,2013-02-04 14:29:00,
2013-02-04 09:30:00,29.5,-3.7,30.03,WNW,292,6.5,12.5,23,33.30,,---,60.16,VWS V14.00,2013-02-04 14:30:00,
2013-02-04 09:32:00,29.3,-3.9,30.03,West,270,5.8,8.1,23,33.30,,---,60.16,VWS V14.00,2013-02-04 14:32:00,
2013-02-04 09:35:00,29.8,-3.4,30.03,WNW,292,10.5,13.0,23,33.30,,---,60.16,VWS V14.00,2013-02-04 14:35:00,
2013-02-04 09:38:00,29.5,-3.7,30.03,WSW,248,7.8,10.1,23,33.30,,---,60.16,VWS V14.00,2013-02-04 14:38:00,
2013-02-04 09:43:00,29.3,-3.9,30.03,WNW,292,7.8,10.5,23,33.30,,---,60.16,VWS V14.00,2013-02-04 14:43:00,
2013-02-04 09:48:00,29.1,-4.1,30.03,WNW,292,7.6,13.0,23,33.30,,---,60.16,VWS V14.00,2013-02-04 14:48:00,
2013-02-04 09:50:00,29.3,-3.9,30.03,West,270,6.9,11.2,23,33.30,,---,60.16,VWS V14.00,2013-02-04 14:50:00,
2013-02-04 09:53:00,29.3,-3.9,30.03,WNW,292,9.0,12.3,23,33.30,,---,60.16,VWS V14.00,2013-02-04 14:53:00,
2013-02-04 09:56:00,29.7,-3.6,30.03,West,270,12.8,15.4,23,33.30,,---,60.16,VWS V14.00,2013-02-04 14:56:00,
2013-02-04 09:57:00,29.5,-3.7,30.03,WNW,292,8.7,13.0,23,33.30,,---,60.16,VWS V14.00,2013-02-04 14:57:00,
2013-02-04 09:59:00,29.3,-3.9,30.03,WNW,292,14.3,14.3,23,33.30,,---,60.16,VWS V14.00,2013-02-04 14:59:00,
2013-02-04 10:04:00,30.2,-3.1,30.03,West,270,5.6,8.5,23,33.30,,---,60.16,VWS V14.00,2013-02-04 15:04:00,
2013-02-04 10:05:00,30.4,-3.0,30.03,North,0,8.1,8.1,23,33.30,,---,60.16,VWS V14.00,2013-02-04 15:05:00,
2013-02-04 10:09:00,30.7,-2.7,30.06,WNW,292,6.5,12.1,23,33.30,,---,60.16,VWS V14.00,2013-02-04 15:09:00,
2013-02-04 10:10:00,30.6,-2.8,30.06,WSW,248,5.4,10.5,23,33.30,,---,60.16,VWS V14.00,2013-02-04 15:10:00,
2013-02-04 10:14:00,29.5,-3.7,30.06,WNW,292,5.4,15.9,23,33.30,,---,60.16,VWS V14.00,2013-02-04 15:14:00,
2013-02-04 10:15:00,29.7,-3.6,30.06,West,270,11.0,11.0,23,33.30,,---,60.16,VWS V14.00,2013-02-04 15:15:00,
2013-02-04 10:20:00,30.2,-3.1,30.06,NW,315,8.7,9.4,23,33.30,,---,60.16,VWS V14.00,2013-02-04 15:20:00,
2013-02-04 10:21:00,30.2,-3.1,30.03,West,270,8.5,8.7,23,33.30,,---,60.16,VWS V14.00,2013-02-04 15:21:00,
2013-02-04 10:26:00,30.0,-3.3,30.03,WNW,292,10.1,10.1,23,33.30,,---,60.16,VWS V14.00,2013-02-04 15:26:00,
2013-02-04 10:29:00,30.4,-3.0,30.03,WNW,292,5.6,11.0,23,33.30,,---,60.16,VWS V14.00,2013-02-04 15:29:00,
2013-02-04 10:31:00,30.4,-3.0,30.03,WNW,292,8.7,10.1,23,33.30,,---,60.16,VWS V14.00,2013-02-04 15:31:00,
2013-02-04 10:36:00,29.7,-3.6,30.00,West,270,10.5,14.5,23,33.30,,---,60.16,VWS V14.00,2013-02-04 15:36:00,
2013-02-04 10:38:00,29.5,-3.7,30.00,West,270,5.8,12.8,23,33.30,,---,60.16,VWS V14.00,2013-02-04 15:38:00,
2013-02-04 10:41:00,29.5,-3.7,30.00,WSW,248,15.4,17.5,23,33.30,,---,60.16,VWS V14.00,2013-02-04 15:41:00,
2013-02-04 10:44:00,30.0,-3.3,30.00,WNW,292,4.0,11.9,23,33.30,,---,60.16,VWS V14.00,2013-02-04 15:44:00,
2013-02-04 10:46:00,30.2,-3.1,30.00,WSW,248,8.7,13.2,23,33.30,,---,60.16,VWS V14.00,2013-02-04 15:46:00,
2013-02-04 10:51:00,30.2,-3.1,30.03,NW,315,6.5,11.0,23,33.30,,---,60.16,VWS V14.00,2013-02-04 15:51:00,
2013-02-04 10:52:00,30.2,-3.1,30.03,West,270,16.8,16.8,23,33.30,,---,60.16,VWS V14.00,2013-02-04 15:52:00,
2013-02-04 10:53:00,30.2,-3.1,30.03,WSW,248,6.5,16.8,23,33.30,,---,60.16,VWS V14.00,2013-02-04 15:53:00,
2013-02-04 10:54:00,30.2,-3.1,30.03,WNW,292,10.3,13.0,23,33.30,,---,60.16,VWS V14.00,2013-02-04 15:54:00,
2013-02-04 10:59:00,30.2,-3.1,30.03,WSW,248,6.3,6.3,23,33.30,,---,60.16,VWS V14.00,2013-02-04 15:59:00,
2013-02-04 11:00:00,30.4,-3.0,30.03,WNW,292,10.1,15.2,23,33.30,,---,60.16,VWS V14.00,2013-02-04 16:00:00,
2013-02-04 11:04:00,30.6,-2.8,30.03,West,270,8.1,8.5,23,33.30,,---,60.16,VWS V14.00,2013-02-04 16:04:00,
2013-02-04 11:05:00,30.6,-2.8,30.03,West,270,5.6,8.1,23,33.30,,---,60.16,VWS V14.00,2013-02-04 16:05:00,
2013-02-04 11:09:00,31.1,-2.4,30.03,West,270,10.3,15.4,23,33.30,,---,60.16,VWS V14.00,2013-02-04 16:09:00,
2013-02-04 11:10:00,30.4,-3.0,30.03,NNW,338,13.0,13.0,23,33.30,,---,60.16,VWS V14.00,2013-02-04 16:10:00,
2013-02-04 11:11:00,30.7,-2.7,30.03,NNW,338,8.7,13.0,23,33.30,,---,60.16,VWS V14.00,2013-02-04 16:11:00,
2013-02-04 11:16:00,30.6,-2.8,30.03,NNW,338,11.2,11.2,23,33.30,,---,60.16,VWS V14.00,2013-02-04 16:16:00,
2013-02-04 11:17:00,30.2,-3.1,30.03,NW,315,13.2,14.1,23,33.30,,---,60.16,VWS V14.00,2013-02-04 16:17:00,
2013-02-04 11:18:00,30.2,-3.1,30.03,WNW,292,8.5,14.3,23,33.30,,---,60.16,VWS V14.00,2013-02-04 16:18:00,
2013-02-04 11:19:00,30.2,-3.1,30.03,WNW,292,8.1,11.2,23,33.30,,---,60.16,VWS V14.00,2013-02-04 16:19:00,
2013-02-04 11:23:00,30.0,-3.3,30.03,West,270,13.0,13.0,23,33.30,,---,60.16,VWS V14.00,2013-02-04 16:23:00,
2013-02-04 11:25:00,30.2,-3.1,30.03,WSW,248,14.1,14.1,23,33.30,,---,60.16,VWS V14.00,2013-02-04 16:25:00,
2013-02-04 11:27:00,30.6,-2.8,30.03,WSW,248,13.4,13.4,23,33.30,,---,60.16,VWS V14.00,2013-02-04 16:27:00,
2013-02-04 11:28:00,30.2,-3.1,30.03,WSW,248,9.8,13.4,23,33.30,,---,60.16,VWS V14.00,2013-02-04 16:28:00,
2013-02-04 11:29:00,30.2,-3.1,30.03,WNW,292,7.4,9.8,23,33.30,,---,60.16,VWS V14.00,2013-02-04 16:29:00,
2013-02-04 11:30:00,30.6,-2.8,30.03,WSW,248,9.6,10.1,23,33.30,,---,60.16,VWS V14.00,2013-02-04 16:30:00,
2013-02-04 11:35:00,30.7,-2.7,30.03,WNW,292,8.7,8.7,23,33.30,,---,60.16,VWS V14.00,2013-02-04 16:35:00,
2013-02-04 11:36:00,30.9,-2.5,30.03,WNW,292,9.8,11.0,23,33.30,,---,60.16,VWS V14.00,2013-02-04 16:36:00,
2013-02-04 11:37:00,30.7,-2.7,30.03,WSW,248,10.5,13.0,23,33.30,,---,60.16,VWS V14.00,2013-02-04 16:37:00,
2013-02-04 11:38:00,30.6,-2.8,30.03,WNW,292,14.8,17.0,23,33.30,,---,60.16,VWS V14.00,2013-02-04 16:38:00,
2013-02-04 11:40:00,30.4,-3.0,30.03,WNW,292,10.5,13.2,23,33.30,,---,60.16,VWS V14.00,2013-02-04 16:40:00,
2013-02-04 11:42:00,30.9,-2.5,30.03,WNW,292,10.3,10.3,23,33.30,,---,60.16,VWS V14.00,2013-02-04 16:42:00,
2013-02-04 11:43:00,30.7,-2.7,30.03,WNW,292,5.6,13.0,23,33.30,,---,60.16,VWS V14.00,2013-02-04 16:43:00,
2013-02-04 11:44:00,30.6,-2.8,30.03,WNW,292,14.5,15.4,23,33.30,,---,60.16,VWS V14.00,2013-02-04 16:44:00,
2013-02-04 11:49:00,31.3,-2.2,30.03,WNW,292,13.0,13.0,23,33.30,,---,60.16,VWS V14.00,2013-02-04 16:49:00,
2013-02-04 11:50:00,30.7,-2.7,30.03,West,270,8.7,13.0,23,33.30,,---,60.16,VWS V14.00,2013-02-04 16:50:00,
2013-02-04 11:51:00,30.9,-2.5,30.00,West,270,6.3,8.7,23,33.30,,---,60.16,VWS V14.00,2013-02-04 16:51:00,
2013-02-04 11:55:00,30.6,-2.8,30.00,WSW,248,11.0,12.8,23,33.30,,---,60.16,VWS V14.00,2013-02-04 16:55:00,
2013-02-04 11:56:00,30.4,-3.0,30.00,West,270,12.8,18.1,23,33.30,,---,60.16,VWS V14.00,2013-02-04 16:56:00,
2013-02-04 11:57:00,30.6,-2.8,30.00,West,270,10.5,13.2,23,33.30,,---,60.16,VWS V14.00,2013-02-04 16:57:00,
2013-02-04 12:01:00,30.7,-2.7,30.00,WSW,248,12.5,19.9,23,33.30,,---,60.16,VWS V14.00,2013-02-04 17:01:00,
2013-02-04 12:02:00,31.1,-2.4,30.00,West,270,10.3,12.5,23,33.30,,---,60.16,VWS V14.00,2013-02-04 17:02:00,
2013-02-04 12:06:00,31.3,-2.2,29.97,WNW,292,7.4,12.3,23,33.30,,---,60.16,VWS V14.00,2013-02-04 17:06:00,
2013-02-04 12:07:00,31.3,-2.2,29.97,WSW,248,6.0,12.1,23,33.30,,---,60.16,VWS V14.00,2013-02-04 17:07:00,
2013-02-04 12:08:00,31.3,-2.2,29.97,WNW,292,6.5,10.7,23,33.30,,---,60.16,VWS V14.00,2013-02-04 17:08:00,
2013-02-04 12:12:00,31.1,-2.4,29.97,WSW,248,12.1,13.6,23,33.30,,---,60.16,VWS V14.00,2013-02-04 17:12:00,
2013-02-04 12:13:00,31.1,-2.4,29.97,West,270,15.2,15.2,23,33.30,,---,60.16,VWS V14.00,2013-02-04 17:13:00,
2013-02-04 12:16:00,31.5,-2.0,29.97,WNW,292,6.5,7.8,23,33.30,,---,60.16,VWS V14.00,2013-02-04 17:16:00,
2013-02-04 12:18:00,31.6,-1.9,29.97,West,270,5.6,9.8,23,33.30,,---,60.16,VWS V14.00,2013-02-04 17:18:00,
2013-02-04 12:19:00,32.0,-1.6,29.97,WNW,292,6.0,6.0,23,33.30,,---,60.16,VWS V14.00,2013-02-04 17:19:00,
2013-02-04 12:20:00,32.0,-1.6,29.97,West,270,8.1,12.5,23,33.30,,---,60.16,VWS V14.00,2013-02-04 17:20:00,
2013-02-04 12:21:00,31.6,-1.9,29.97,WNW,292,12.8,12.8,23,33.30,,---,60.16,VWS V14.00,2013-02-04 17:21:00,
2013-02-04 12:23:00,31.1,-2.4,29.97,West,270,6.3,13.2,23,33.30,,---,60.16,VWS V14.00,2013-02-04 17:23:00,
2013-02-04 12:26:00,31.5,-2.0,29.97,WNW,292,6.3,12.1,23,33.30,,---,60.16,VWS V14.00,2013-02-04 17:26:00,
2013-02-04 12:27:00,31.1,-2.4,29.97,WNW,292,7.6,15.4,23,33.30,,---,60.16,VWS V14.00,2013-02-04 17:27:00,
2013-02-04 12:28:00,31.5,-2.0,29.97,West,270,7.8,9.0,23,33.30,,---,60.16,VWS V14.00,2013-02-04 17:28:00,
2013-02-04 12:31:00,31.1,-2.4,29.97,West,270,7.6,13.6,23,33.30,,---,60.16,VWS V14.00,2013-02-04 17:31:00,
2013-02-04 12:33:00,31.8,-1.8,29.97,WNW,292,4.7,8.1,23,33.30,,---,60.16,VWS V14.00,2013-02-04 17:33:00,
2013-02-04 12:36:00,32.2,-1.4,29.97,West,270,12.8,14.3,23,33.30,,---,60.16,VWS V14.00,2013-02-04 17:36:00,
2013-02-04 12:37:00,31.8,-1.8,29.97,WNW,292,11.4,13.2,23,33.30,,---,60.16,VWS V14.00,2013-02-04 17:37:00,
2013-02-04 12:39:00,32.2,-1.4,29.97,WNW,292,12.8,12.8,23,33.30,,---,60.16,VWS V14.00,2013-02-04 17:39:00,
2013-02-04 12:42:00,32.5,-1.1,29.97,NNW,338,7.4,8.5,23,33.30,,---,60.16,VWS V14.00,2013-02-04 17:42:00,
2013-02-04 12:43:00,32.4,-1.3,29.97,SW,225,7.4,10.1,23,33.30,,---,60.16,VWS V14.00,2013-02-04 17:43:00,
2013-02-04 12:44:00,32.2,-1.4,29.97,West,270,5.6,10.5,23,33.30,,---,60.16,VWS V14.00,2013-02-04 17:44:00,
2013-02-04 12:49:00,32.4,-1.3,29.97,WNW,292,2.9,6.0,23,33.30,,---,60.16,VWS V14.00,2013-02-04 17:49:00,
2013-02-04 12:50:00,32.7,-1.0,29.97,West,270,6.0,6.0,23,33.30,,---,60.16,VWS V14.00,2013-02-04 17:50:00,
2013-02-04 12:54:00,32.4,-1.3,29.97,WNW,292,8.5,13.6,23,33.30,,---,60.16,VWS V14.00,2013-02-04 17:54:00,
2013-02-04 12:55:00,32.0,-1.6,29.97,West,270,12.5,12.5,23,33.30,,---,60.16,VWS V14.00,2013-02-04 17:55:00,
2013-02-04 12:57:00,32.2,-1.4,29.97,NW,315,7.6,15.4,23,33.30,,---,60.16,VWS V14.00,2013-02-04 17:57:00,
2013-02-04 12:59:00,32.2,-1.4,29.97,WNW,292,8.7,8.7,23,33.30,,---,60.16,VWS V14.00,2013-02-04 17:59:00,
2013-02-04 13:01:00,32.0,-1.6,29.97,WNW,292,8.1,12.8,23,33.30,,---,60.16,VWS V14.00,2013-02-04 18:01:00,
2013-02-04 13:04:00,32.0,-1.6,29.97,West,270,10.3,11.4,23,33.30,,---,60.16,VWS V14.00,2013-02-04 18:04:00,
2013-02-04 13:06:00,31.8,-1.8,29.97,WSW,248,6.5,6.5,23,33.30,,---,60.16,VWS V14.00,2013-02-04 18:06:00,
2013-02-04 13:07:00,32.4,-1.3,29.97,West,270,4.0,6.5,23,33.30,,---,60.16,VWS V14.00,2013-02-04 18:07:00,
2013-02-04 13:12:00,32.2,-1.4,29.97,WSW,248,14.1,14.1,23,33.30,,---,60.16,VWS V14.00,2013-02-04 18:12:00,
2013-02-04 13:14:00,32.0,-1.6,29.97,NNW,338,11.0,11.0,23,33.30,,---,60.16,VWS V14.00,2013-02-04 18:14:00,
2013-02-04 13:17:00,32.4,-1.3,29.97,WNW,292,11.0,11.0,23,33.30,,---,60.16,VWS V14.00,2013-02-04 18:17:00,
2013-02-04 13:18:00,32.4,-1.3,29.97,WNW,292,6.9,11.0,23,33.30,,---,60.16,VWS V14.00,2013-02-04 18:18:00,
2013-02-04 13:23:00,31.8,-1.8,29.97,WSW,248,14.5,14.5,23,33.30,,---,60.16,VWS V14.00,2013-02-04 18:23:00,
2013-02-04 13:24:00,32.0,-1.6,29.97,West,270,9.8,14.5,23,33.30,,---,60.16,VWS V14.00,2013-02-04 18:24:00,
2013-02-04 13:28:00,32.2,-1.4,29.97,WNW,292,6.0,8.1,23,33.30,,---,60.16,VWS V14.00,2013-02-04 18:28:00,
2013-02-04 13:30:00,32.4,-1.3,29.97,WSW,248,7.8,9.8,23,33.30,,---,60.16,VWS V14.00,2013-02-04 18:30:00,
2013-02-04 13:33:00,31.6,-1.9,29.97,WNW,292,10.1,15.2,23,33.30,,---,60.16,VWS V14.00,2013-02-04 18:33:00,
2013-02-04 13:38:00,32.0,-1.6,29.97,WNW,292,8.5,10.7,23,33.30,,---,60.16,VWS V14.00,2013-02-04 18:38:00,
2013-02-04 13:40:00,31.6,-1.9,29.97,WNW,292,15.2,15.2,23,33.30,,---,60.16,VWS V14.00,2013-02-04 18:40:00,
2013-02-04 13:45:00,31.6,-1.9,29.97,WNW,292,7.2,14.1,23,33.30,,---,60.16,VWS V14.00,2013-02-04 18:45:00,
2013-02-04 13:47:00,31.5,-2.0,29.97,WNW,292,6.3,13.2,23,33.30,,---,60.16,VWS V14.00,2013-02-04 18:47:00,
2013-02-04 13:50:00,31.5,-2.0,29.97,WSW,248,10.5,15.2,23,33.30,,---,60.16,VWS V14.00,2013-02-04 18:50:00,
2013-02-04 13:52:00,31.6,-1.9,29.97,NNW,338,3.1,8.5,23,33.30,,---,60.16,VWS V14.00,2013-02-04 18:52:00,
2013-02-04 13:55:00,32.0,-1.6,29.97,West,270,8.7,13.0,23,33.30,,---,60.16,VWS V14.00,2013-02-04 18:55:00,
2013-02-04 13:57:00,31.6,-1.9,29.97,WNW,292,13.9,13.9,23,33.30,,---,60.16,VWS V14.00,2013-02-04 18:57:00,
2013-02-04 14:01:00,31.6,-1.9,29.97,WNW,292,12.1,13.4,23,33.30,,---,60.16,VWS V14.00,2013-02-04 19:01:00,
2013-02-04 14:02:00,31.5,-2.0,29.97,WNW,292,13.0,13.4,23,33.30,,---,60.16,VWS V14.00,2013-02-04 19:02:00,
2013-02-04 14:04:00,31.5,-2.0,29.97,WNW,292,6.7,16.8,23,33.30,,---,60.16,VWS V14.00,2013-02-04 19:04:00,
2013-02-04 14:05:00,31.6,-1.9,29.97,NW,315,8.1,9.2,23,33.30,,---,60.16,VWS V14.00,2013-02-04 19:05:00,
2013-02-04 14:07:00,31.8,-1.8,29.94,WNW,292,6.3,10.3,23,33.30,,---,60.16,VWS V14.00,2013-02-04 19:07:00,
2013-02-04 14:12:00,32.4,-1.3,29.94,WSW,248,7.8,7.8,23,33.30,,---,60.16,VWS V14.00,2013-02-04 19:12:00,
2013-02-04 14:17:00,32.4,-1.3,29.94,WNW,292,3.8,10.1,23,33.30,,---,60.16,VWS V14.00,2013-02-04 19:17:00,
2013-02-04 14:18:00,32.5,-1.1,29.94,NNW,338,4.0,7.4,23,33.30,,---,60.16,VWS V14.00,2013-02-04 19:18:00,
2013-02-04 14:22:00,32.7,-1.0,29.97,West,270,6.0,8.1,23,33.30,,---,60.16,VWS V14.00,2013-02-04 19:22:00,
2013-02-04 14:27:00,32.2,-1.4,29.97,WSW,248,5.8,8.1,23,33.30,,---,60.16,VWS V14.00,2013-02-04 19:27:00,
2013-02-04 14:28:00,32.2,-1.4,29.97,West,270,10.7,10.7,23,33.30,,---,60.16,VWS V14.00,2013-02-04 19:28:00,
2013-02-04 14:29:00,32.0,-1.6,29.97,West,270,10.5,10.7,23,33.30,,---,60.16,VWS V14.00,2013-02-04 19:29:00,
2013-02-04 14:34:00,32.0,-1.6,29.97,West,270,10.3,10.3,23,33.30,,---,60.16,VWS V14.00,2013-02-04 19:34:00,
2013-02-04 14:36:00,32.0,-1.6,29.97,WNW,292,8.5,8.5,23,33.30,,---,60.16,VWS V14.00,2013-02-04 19:36:00,
2013-02-04 14:37:00,32.0,-1.6,29.97,WNW,292,10.7,10.7,23,33.30,,---,60.16,VWS V14.00,2013-02-04 19:37:00,
2013-02-04 14:39:00,31.6,-1.9,29.97,West,270,6.7,12.1,23,33.30,,---,60.16,VWS V14.00,2013-02-04 19:39:00,
2013-02-04 14:42:00,31.6,-1.9,29.97,NNW,338,4.7,10.3,23,33.30,,---,60.16,VWS V14.00,2013-02-04 19:42:00,
2013-02-04 14:44:00,31.5,-2.0,29.97,WSW,248,13.2,13.2,23,33.30,,---,60.16,VWS V14.00,2013-02-04 19:44:00,
2013-02-04 14:49:00,31.3,-2.2,29.97,WNW,292,8.1,8.5,23,33.30,,---,60.16,VWS V14.00,2013-02-04 19:49:00,
2013-02-04 14:51:00,31.3,-2.2,29.94,NW,315,5.8,10.7,23,33.30,,---,60.16,VWS V14.00,2013-02-04 19:51:00,
2013-02-04 14:52:00,31.5,-2.0,29.94,West,270,8.7,10.5,23,33.30,,---,60.16,VWS V14.00,2013-02-04 19:52:00,
2013-02-04 14:54:00,31.1,-2.4,29.94,WNW,292,8.5,14.8,23,33.30,,---,60.16,VWS V14.00,2013-02-04 19:54:00,
2013-02-04 14:57:00,31.1,-2.4,29.94,WSW,248,8.7,15.9,23,33.30,,---,60.16,VWS V14.00,2013-02-04 19:57:00,
2013-02-04 14:59:00,30.9,-2.5,29.94,WNW,292,5.6,11.9,23,33.30,,---,60.16,VWS V14.00,2013-02-04 19:59:00,
2013-02-04 15:04:00,30.9,-2.5,29.94,NW,315,6.5,13.2,23,33.30,,---,60.16,VWS V14.00,2013-02-04 20:04:00,
2013-02-04 15:05:00,31.1,-2.4,29.94,NW,315,7.4,8.7,23,33.30,,---,60.16,VWS V14.00,2013-02-04 20:05:00,
2013-02-04 15:07:00,31.1,-2.4,29.94,WNW,292,7.8,10.7,23,33.30,,---,60.16,VWS V14.00,2013-02-04 20:07:00,
2013-02-04 15:09:00,31.1,-2.4,29.94,WNW,292,12.3,14.8,23,33.30,,---,60.16,VWS V14.00,2013-02-04 20:09:00,
2013-02-04 15:10:00,30.9,-2.5,29.94,WNW,292,11.0,13.2,23,33.30,,---,60.16,VWS V14.00,2013-02-04 20:10:00,
2013-02-04 15:11:00,30.9,-2.5,29.94,West,270,12.1,12.1,23,33.30,,---,60.16,VWS V14.00,2013-02-04 20:11:00,
2013-02-04 15:15:00,31.1,-2.4,29.94,West,270,14.3,14.3,23,33.30,,---,60.16,VWS V14.00,2013-02-04 20:15:00,
2013-02-04 15:17:00,31.1,-2.4,29.94,WSW,248,11.0,11.0,23,33.30,,---,60.16,VWS V14.00,2013-02-04 20:17:00,
2013-02-04 15:20:00,31.1,-2.4,29.94,WNW,292,3.8,9.8,23,33.30,,---,60.16,VWS V14.00,2013-02-04 20:20:00,
2013-02-04 15:22:00,31.1,-2.4,29.97,WNW,292,13.0,13.0,23,33.30,,---,60.16,VWS V14.00,2013-02-04 20:22:00,
2013-02-04 15:24:00,31.3,-2.2,29.97,WSW,248,11.9,13.2,23,33.30,,---,60.16,VWS V14.00,2013-02-04 20:24:00,
2013-02-04 15:25:00,31.1,-2.4,29.97,West,270,6.0,11.9,23,33.30,,---,60.16,VWS V14.00,2013-02-04 20:25:00,
2013-02-04 15:26:00,31.1,-2.4,29.97,WSW,248,8.5,14.8,23,33.30,,---,60.16,VWS V14.00,2013-02-04 20:26:00,
2013-02-04 15:28:00,31.1,-2.4,29.97,WSW,248,8.1,10.7,23,33.30,,---,60.16,VWS V14.00,2013-02-04 20:28:00,
2013-02-04 15:29:00,31.1,-2.4,29.97,WSW,248,7.6,8.1,23,33.30,,---,60.16,VWS V14.00,2013-02-04 20:29:00,
2013-02-04 15:31:00,31.1,-2.4,29.97,WNW,292,6.5,8.1,23,33.30,,---,60.16,VWS V14.00,2013-02-04 20:31:00,
2013-02-04 15:32:00,31.1,-2.4,29.97,WNW,292,10.5,12.3,23,33.30,,---,60.16,VWS V14.00,2013-02-04 20:32:00,
2013-02-04 15:35:00,30.9,-2.5,29.97,WNW,292,5.6,12.8,23,33.30,,---,60.16,VWS V14.00,2013-02-04 20:35:00,
2013-02-04 15:36:00,30.7,-2.7,29.94,WSW,248,11.9,12.5,23,33.30,,---,60.16,VWS V14.00,2013-02-04 20:36:00,
2013-02-04 15:37:00,30.7,-2.7,29.94,West,270,13.0,13.0,23,33.30,,---,60.16,VWS V14.00,2013-02-04 20:37:00,
2013-02-04 15:41:00,30.7,-2.7,29.94,WNW,292,11.0,11.0,23,33.30,,---,60.16,VWS V14.00,2013-02-04 20:41:00,
2013-02-04 15:42:00,30.6,-2.8,29.94,West,270,5.6,12.8,23,33.30,,---,60.16,VWS V14.00,2013-02-04 20:42:00,
2013-02-04 15:43:00,30.7,-2.7,29.94,WNW,292,7.4,9.2,23,33.30,,---,60.16,VWS V14.00,2013-02-04 20:43:00,
2013-02-04 15:47:00,30.6,-2.8,29.94,WNW,292,6.3,10.1,23,33.30,,---,60.16,VWS V14.00,2013-02-04 20:47:00,
2013-02-04 15:48:00,30.7,-2.7,29.94,WSW,248,8.7,8.7,23,33.30,,---,60.16,VWS V14.00,2013-02-04 20:48:00,
2013-02-04 15:50:00,30.7,-2.7,29.94,WSW,248,6.0,12.5,23,33.30,,---,60.16,VWS V14.00,2013-02-04 20:50:00,
2013-02-04 15:52:00,30.6,-2.8,29.97,WSW,248,7.6,11.0,23,33.30,,---,60.16,VWS V14.00,2013-02-04 20:52:00,
2013-02-04 15:54:00,30.6,-2.8,29.97,West,270,9.8,12.8,23,33.30,,---,60.16,VWS V14.00,2013-02-04 20:54:00,
2013-02-04 15:55:00,30.4,-3.0,29.97,WSW,248,10.5,15.2,23,33.30,,---,60.16,VWS V14.00,2013-02-04 20:55:00,
2013-02-04 15:58:00,30.4,-3.0,29.97,WNW,292,10.3,15.4,23,33.30,,---,60.16,VWS V14.00,2013-02-04 20:58:00,
2013-02-04 16:00:00,30.2,-3.1,29.97,WNW,292,10.7,10.7,23,33.30,,---,60.16,VWS V14.00,2013-02-04 21:00:00,
2013-02-04 16:01:00,30.2,-3.1,29.97,West,270,5.4,10.7,23,33.30,,---,60.16,VWS V14.00,2013-02-04 21:01:00,
2013-02-04 16:02:00,30.4,-3.0,29.97,NW,315,6.0,6.3,23,33.30,,---,60.16,VWS V14.00,2013-02-04 21:02:00,
2013-02-04 16:06:00,30.2,-3.1,29.97,WSW,248,8.7,13.0,23,33.30,,---,60.16,VWS V14.00,2013-02-04 21:06:00,
2013-02-04 16:08:00,30.2,-3.1,29.97,WNW,292,5.6,8.1,23,33.30,,---,60.16,VWS V14.00,2013-02-04 21:08:00,
2013-02-04 16:12:00,30.2,-3.1,29.97,West,270,6.5,9.2,23,33.30,,---,60.16,VWS V14.00,2013-02-04 21:12:00,
2013-02-04 16:13:00,30.2,-3.1,29.97,WSW,248,6.3,8.7,23,33.30,,---,60.16,VWS V14.00,2013-02-04 21:13:00,
2013-02-04 16:14:00,30.2,-3.1,29.97,WNW,292,9.8,12.5,23,33.30,,---,60.16,VWS V14.00,2013-02-04 21:14:00,
2013-02-04 16:17:00,30.2,-3.1,29.97,WNW,292,8.1,10.3,23,33.30,,---,60.16,VWS V14.00,2013-02-04 21:17:00,
2013-02-04 16:18:00,30.2,-3.1,29.97,West,270,4.9,8.1,23,33.30,,---,60.16,VWS V14.00,2013-02-04 21:18:00,
2013-02-04 16:19:00,30.2,-3.1,29.97,NW,315,6.3,7.8,23,33.30,,---,60.16,VWS V14.00,2013-02-04 21:19:00,
2013-02-04 16:21:00,30.2,-3.1,29.97,NNW,338,8.5,11.0,23,33.30,,---,60.16,VWS V14.00,2013-02-04 21:21:00,
2013-02-04 16:23:00,30.2,-3.1,29.97,WNW,292,6.5,12.8,23,33.30,,---,60.16,VWS V14.00,2013-02-04 21:23:00,
2013-02-04 16:25:00,30.0,-3.3,29.97,West,270,9.8,11.2,23,33.30,,---,60.16,VWS V14.00,2013-02-04 21:25:00,
2013-02-04 16:26:00,30.0,-3.3,29.97,WNW,292,6.5,9.8,23,33.30,,---,60.16,VWS V14.00,2013-02-04 21:26:00,
2013-02-04 16:29:00,30.0,-3.3,29.97,WSW,248,10.5,10.5,23,33.30,,---,60.16,VWS V14.00,2013-02-04 21:29:00,
2013-02-04 16:31:00,29.8,-3.4,29.97,WSW,248,5.8,9.6,23,33.30,,---,60.16,VWS V14.00,2013-02-04 21:31:00,
2013-02-04 16:32:00,29.8,-3.4,29.97,West,270,6.3,7.2,23,33.30,,---,60.16,VWS V14.00,2013-02-04 21:32:00,
2013-02-04 16:33:00,30.0,-3.3,29.97,West,270,8.7,8.7,23,33.30,,---,60.16,VWS V14.00,2013-02-04 21:33:00,
2013-02-04 16:34:00,30.0,-3.3,29.97,WNW,292,6.5,8.7,23,33.30,,---,60.16,VWS V14.00,2013-02-04 21:34:00,
2013-02-04 16:38:00,29.8,-3.4,29.97,WNW,292,5.4,7.6,23,33.30,,---,60.16,VWS V14.00,2013-02-04 21:38:00,
2013-02-04 16:39:00,29.8,-3.4,29.97,WSW,248,5.4,6.5,23,33.30,,---,60.16,VWS V14.00,2013-02-04 21:39:00,
2013-02-04 16:41:00,29.8,-3.4,29.97,WNW,292,5.4,10.7,23,33.30,,---,60.16,VWS V14.00,2013-02-04 21:41:00,
2013-02-04 16:46:00,29.8,-3.4,29.97,WNW,292,6.0,8.7,23,33.30,,---,60.16,VWS V14.00,2013-02-04 21:46:00,
2013-02-04 16:49:00,29.7,-3.6,29.97,WNW,292,10.7,12.3,23,33.30,,---,60.16,VWS V14.00,2013-02-04 21:49:00,
2013-02-04 16:51:00,29.7,-3.6,29.97,NW,315,7.6,10.7,23,33.30,,---,60.16,VWS V14.00,2013-02-04 21:51:00,
2013-02-04 16:52:00,29.7,-3.6,29.97,NW,315,3.8,9.8,23,33.30,,---,60.16,VWS V14.00,2013-02-04 21:52:00,
2013-02-04 16:55:00,29.7,-3.6,29.97,West,270,3.8,8.5,23,33.30,,---,60.16,VWS V14.00,2013-02-04 21:55:00,
2013-02-04 16:56:00,29.7,-3.6,29.97,WNW,292,6.3,10.1,23,33.30,,---,60.16,VWS V14.00,2013-02-04 21:56:00,
2013-02-04 16:57:00,29.7,-3.6,29.97,WSW,248,7.8,7.8,23,33.30,,---,60.16,VWS V14.00,2013-02-04 21:57:00,
2013-02-04 16:58:00,29.7,-3.6,29.97,WSW,248,7.2,7.8,23,33.30,,---,60.16,VWS V14.00,2013-02-04 21:58:00,
2013-02-04 17:01:00,29.5,-3.7,29.97,West,270,7.6,7.6,23,33.30,,---,60.16,VWS V14.00,2013-02-04 22:01:00,
2013-02-04 17:02:00,29.7,-3.6,29.97,WNW,292,4.3,7.6,23,33.30,,---,60.16,VWS V14.00,2013-02-04 22:02:00,
2013-02-04 17:06:00,29.5,-3.7,29.97,North,0,6.3,12.3,23,33.30,,---,60.16,VWS V14.00,2013-02-04 22:06:00,
2013-02-04 17:07:00,29.5,-3.7,29.97,WNW,292,10.3,10.3,23,33.30,,---,60.16,VWS V14.00,2013-02-04 22:07:00,
2013-02-04 17:09:00,29.5,-3.7,29.97,West,270,8.5,10.1,23,33.30,,---,60.16,VWS V14.00,2013-02-04 22:09:00,
2013-02-04 17:10:00,29.5,-3.7,29.97,WNW,292,7.4,10.5,23,33.30,,---,60.16,VWS V14.00,2013-02-04 22:10:00,
2013-02-04 17:11:00,29.5,-3.7,29.97,NW,315,4.7,7.4,23,33.30,,---,60.16,VWS V14.00,2013-02-04 22:11:00,
2013-02-04 17:14:00,29.5,-3.7,29.97,WNW,292,5.6,12.1,23,33.30,,---,60.16,VWS V14.00,2013-02-04 22:14:00,
2013-02-04 17:16:00,29.5,-3.7,29.97,WNW,292,6.5,8.1,23,33.30,,---,60.16,VWS V14.00,2013-02-04 22:16:00,
2013-02-04 17:17:00,29.3,-3.9,29.97,WNW,292,8.1,9.8,23,33.30,,---,60.16,VWS V14.00,2013-02-04 22:17:00,
2013-02-04 17:19:00,29.3,-3.9,29.97,WNW,292,8.7,8.7,23,33.30,,---,60.16,VWS V14.00,2013-02-04 22:19:00,
2013-02-04 17:22:00,29.3,-3.9,29.97,WNW,292,5.8,8.7,23,33.30,,---,60.16,VWS V14.00,2013-02-04 22:22:00,
2013-02-04 17:23:00,29.1,-4.1,29.97,WSW,248,5.4,5.8,23,33.30,,---,60.16,VWS V14.00,2013-02-04 22:23:00,
2013-02-04 17:26:00,29.1,-4.1,29.97,WNW,292,10.3,10.3,23,33.30,,---,60.16,VWS V14.00,2013-02-04 22:26:00,
2013-02-04 17:28:00,29.1,-4.1,29.97,West,270,3.4,5.4,23,33.30,,---,60.16,VWS V14.00,2013-02-04 22:28:00,
2013-02-04 17:29:00,28.9,-4.2,29.97,West,270,3.6,8.1,23,33.30,,---,60.16,VWS V14.00,2013-02-04 22:29:00,
2013-02-04 17:32:00,28.9,-4.2,29.97,West,270,6.3,6.3,23,33.30,,---,60.16,VWS V14.00,2013-02-04 22:32:00,
2013-02-04 17:35:00,28.8,-4.3,29.97,WSW,248,7.4,7.4,23,33.30,,---,60.16,VWS V14.00,2013-02-04 22:35:00,
2013-02-04 17:38:00,28.8,-4.3,29.97,WSW,248,6.5,6.5,23,33.30,,---,60.16,VWS V14.00,2013-02-04 22:38:00,
2013-02-04 17:39:00,28.8,-4.3,29.97,WNW,292,6.5,6.9,23,33.30,,---,60.16,VWS V14.00,2013-02-04 22:39:00,
2013-02-04 17:42:00,28.6,-4.5,29.97,WSW,248,3.8,3.8,23,33.30,,---,60.16,VWS V14.00,2013-02-04 22:42:00,
2013-02-04 17:44:00,28.6,-4.5,29.97,WSW,248,4.7,7.2,23,33.30,,---,60.16,VWS V14.00,2013-02-04 22:44:00,
2013-02-04 17:45:00,28.6,-4.5,29.97,West,270,2.5,4.7,23,33.30,,---,60.16,VWS V14.00,2013-02-04 22:45:00,
2013-02-04 17:46:00,28.6,-4.5,29.97,West,270,0.9,3.4,23,33.30,,---,60.16,VWS V14.00,2013-02-04 22:46:00,
2013-02-04 17:47:00,28.4,-4.7,29.97,West,270,1.6,2.9,23,33.30,,---,60.16,VWS V14.00,2013-02-04 22:47:00,
2013-02-04 17:51:00,28.2,-4.8,29.97,WSW,248,2.7,4.9,23,33.30,,---,60.16,VWS V14.00,2013-02-04 22:51:00,
2013-02-04 17:52:00,28.2,-4.8,29.97,WSW,248,4.9,4.9,23,33.30,,---,60.16,VWS V14.00,2013-02-04 22:52:00,
2013-02-04 17:53:00,28.2,-4.8,29.97,West,270,4.9,5.6,23,33.30,,---,60.16,VWS V14.00,2013-02-04 22:53:00,
2013-02-04 17:56:00,28.4,-4.7,29.97,West,270,4.9,4.9,23,33.30,,---,60.16,VWS V14.00,2013-02-04 22:56:00,
2013-02-04 17:57:00,28.2,-4.8,29.97,West,270,4.0,4.9,23,33.30,,---,60.16,VWS V14.00,2013-02-04 22:57:00,
2013-02-04 17:58:00,28.2,-4.8,29.97,WNW,292,3.1,4.9,23,33.30,,---,60.16,VWS V14.00,2013-02-04 22:58:00,
2013-02-04 18:01:00,28.2,-4.8,29.97,West,270,3.4,3.8,23,33.30,,---,60.16,VWS V14.00,2013-02-04 23:01:00,
2013-02-04 18:03:00,28.0,-5.0,29.97,WSW,248,2.5,3.1,23,33.30,,---,60.16,VWS V14.00,2013-02-04 23:03:00,
2013-02-04 18:07:00,28.0,-5.0,29.94,West,270,5.4,5.4,23,33.30,,---,60.16,VWS V14.00,2013-02-04 23:07:00,
2013-02-04 18:08:00,28.0,-5.0,29.94,WNW,292,3.6,6.0,23,33.30,,---,60.16,VWS V14.00,2013-02-04 23:08:00,
2013-02-04 18:09:00,28.0,-5.0,29.94,WSW,248,4.0,4.0,23,33.30,,---,60.16,VWS V14.00,2013-02-04 23:09:00,
2013-02-04 18:12:00,28.0,-5.0,29.94,West,270,2.5,6.5,23,33.30,,---,60.16,VWS V14.00,2013-02-04 23:12:00,
2013-02-04 18:16:00,28.0,-5.0,29.94,West,270,3.8,4.9,23,33.30,,---,60.16,VWS V14.00,2013-02-04 23:16:00,
2013-02-04 18:17:00,28.0,-5.0,29.94,West,270,2.9,4.9,23,33.30,,---,60.16,VWS V14.00,2013-02-04 23:17:00,
2013-02-04 18:18:00,28.0,-5.0,29.94,WNW,292,5.4,7.6,23,33.30,,---,60.16,VWS V14.00,2013-02-04 23:18:00,
2013-02-04 18:23:00,28.0,-5.0,29.97,WSW,248,2.2,3.8,23,33.30,,---,60.16,VWS V14.00,2013-02-04 23:23:00,
2013-02-04 18:24:00,27.9,-5.1,29.97,West,270,3.1,6.5,23,33.30,,---,60.16,VWS V14.00,2013-02-04 23:24:00,
2013-02-04 18:27:00,27.9,-5.1,29.97,West,270,2.5,3.8,23,33.30,,---,60.16,VWS V14.00,2013-02-04 23:27:00,
2013-02-04 18:29:00,27.7,-5.3,29.97,WNW,292,2.2,3.4,23,33.30,,---,60.16,VWS V14.00,2013-02-04 23:29:00,
2013-02-04 18:31:00,27.7,-5.3,29.97,WSW,248,0.0,3.8,23,33.30,,---,60.16,VWS V14.00,2013-02-04 23:31:00,
2013-02-04 18:36:00,27.3,-5.6,29.97,WSW,248,2.2,2.7,23,33.30,,---,60.16,VWS V14.00,2013-02-04 23:36:00,
2013-02-04 18:37:00,27.3,-5.6,29.97,WSW,248,0.0,2.2,23,33.30,,---,60.16,VWS V14.00,2013-02-04 23:37:00,
2013-02-04 18:41:00,27.1,-5.7,29.97,WSW,248,0.0,4.0,23,33.30,,---,60.16,VWS V14.00,2013-02-04 23:41:00,
2013-02-04 18:46:00,26.8,-6.0,29.97,WSW,248,0.0,0.0,23,33.30,,---,60.16,VWS V14.00,2013-02-04 23:46:00,
2013-02-04 18:47:00,26.6,-5.3,29.97,WSW,248,0.0,0.0,24,33.30,,---,60.16,VWS V14.00,2013-02-04 23:47:00,
2013-02-04 18:52:00,26.4,-5.5,29.97,WSW,248,2.9,2.9,24,33.30,,---,60.16,VWS V14.00,2013-02-04 23:52:00,
2013-02-04 18:53:00,26.4,-5.5,29.97,WSW,248,1.6,2.9,24,33.30,,---,60.16,VWS V14.00,2013-02-04 23:53:00,
2013-02-04 18:58:00,26.2,-8.4,29.97,WSW,248,0.0,3.1,21,33.30,,---,60.16,VWS V14.00,2013-02-04 23:58:00,
2013-02-04 19:03:00,26.2,-8.4,29.97,WSW,248,0.0,1.3,21,33.30,,---,60.16,VWS V14.00,2013-02-05 00:03:00,
2013-02-04 19:04:00,26.2,-8.4,29.97,WSW,248,0.0,0.0,21,33.30,,---,60.16,VWS V14.00,2013-02-05 00:04:00,
2013-02-04 19:08:00,26.4,-8.2,29.97,WSW,248,0.0,2.5,21,33.30,,---,60.16,VWS V14.00,2013-02-05 00:08:00,
2013-02-04 19:09:00,26.2,-8.4,29.97,WSW,248,1.3,1.3,21,33.30,,---,60.16,VWS V14.00,2013-02-05 00:09:00,
2013-02-04 19:14:00,26.1,-8.5,29.97,WSW,248,0.0,0.0,21,33.30,,---,60.16,VWS V14.00,2013-02-05 00:14:00,
2013-02-04 19:16:00,26.1,-8.5,29.97,WSW,248,0.0,0.0,21,33.30,,---,60.16,VWS V14.00,2013-02-05 00:16:00,
2013-02-04 19:20:00,26.1,-8.5,29.97,WSW,248,0.0,0.0,21,33.30,,---,60.16,VWS V14.00,2013-02-05 00:20:00,
2013-02-04 19:21:00,26.1,-8.5,29.97,WSW,248,0.0,0.0,21,33.30,,---,60.16,VWS V14.00,2013-02-05 00:21:00,
2013-02-04 19:26:00,26.1,-8.5,29.97,WSW,248,0.0,0.0,21,33.30,,---,60.16,VWS V14.00,2013-02-05 00:26:00,
2013-02-04 19:31:00,25.9,-8.7,29.97,WSW,248,0.0,0.0,21,33.30,,---,60.16,VWS V14.00,2013-02-05 00:31:00,
2013-02-04 19:34:00,26.1,-8.5,29.97,WSW,248,0.0,0.0,21,33.30,,---,60.16,VWS V14.00,2013-02-05 00:34:00,
2013-02-04 19:36:00,26.1,-8.5,29.97,WSW,248,0.0,0.0,21,33.30,,---,60.16,VWS V14.00,2013-02-05 00:36:00,
2013-02-04 19:39:00,26.1,-8.5,29.97,WSW,248,1.1,1.6,21,33.30,,---,60.16,VWS V14.00,2013-02-05 00:39:00,
2013-02-04 19:43:00,26.1,-8.5,29.97,WSW,248,0.0,0.0,21,33.30,,---,60.16,VWS V14.00,2013-02-05 00:43:00,
2013-02-04 19:45:00,25.9,-8.7,29.97,WSW,248,0.0,0.0,21,33.30,,---,60.16,VWS V14.00,2013-02-05 00:45:00,
2013-02-04 19:48:00,25.9,-8.7,29.97,WSW,248,0.0,0.0,21,33.30,,---,60.16,VWS V14.00,2013-02-05 00:48:00,
2013-02-04 19:53:00,25.5,-9.0,30.00,WSW,248,0.0,0.0,21,33.30,,---,60.16,VWS V14.00,2013-02-05 00:53:00,
2013-02-04 19:55:00,25.5,-9.0,30.00,WSW,248,0.0,0.0,21,33.30,,---,60.16,VWS V14.00,2013-02-05 00:55:00,
2013-02-04 19:58:00,25.5,-9.0,30.00,WSW,248,0.0,1.3,21,33.30,,---,60.16,VWS V14.00,2013-02-05 00:58:00,
2013-02-04 20:04:00,25.7,-8.8,30.00,WSW,248,0.0,1.1,21,33.30,,---,60.16,VWS V14.00,2013-02-05 01:04:00,
2013-02-04 20:09:00,25.7,-8.8,30.00,WSW,248,0.0,0.0,21,33.30,,---,60.16,VWS V14.00,2013-02-05 01:09:00,
2013-02-04 20:14:00,25.9,-8.7,30.00,WSW,248,0.0,0.0,21,33.30,,---,60.16,VWS V14.00,2013-02-05 01:14:00,
2013-02-04 20:16:00,25.9,-8.7,30.00,WSW,248,0.0,0.0,21,33.30,,---,60.16,VWS V14.00,2013-02-05 01:16:00,
2013-02-04 20:20:00,25.7,-8.8,30.00,WSW,248,0.0,0.0,21,33.30,,---,60.16,VWS V14.00,2013-02-05 01:20:00,
2013-02-04 20:21:00,25.7,-8.8,29.97,WSW,248,0.0,0.0,21,33.30,,---,60.16,VWS V14.00,2013-02-05 01:21:00,
2013-02-04 20:26:00,25.3,-9.1,29.97,WSW,248,0.0,0.0,21,33.30,,---,60.16,VWS V14.00,2013-02-05 01:26:00,
2013-02-04 20:28:00,25.3,-9.1,29.97,WSW,248,0.0,0.0,21,33.30,,---,60.16,VWS V14.00,2013-02-05 01:28:00,
2013-02-04 20:31:00,25.3,-9.1,29.97,WSW,248,0.0,0.0,21,33.30,,---,60.16,VWS V14.00,2013-02-05 01:31:00,
2013-02-04 20:36:00,25.5,-9.0,30.00,WSW,248,0.0,1.3,21,33.30,,---,60.16,VWS V14.00,2013-02-05 01:36:00,
2013-02-04 20:38:00,25.5,-9.0,30.00,WSW,248,0.0,2.0,21,33.30,,---,60.16,VWS V14.00,2013-02-05 01:38:00,
2013-02-04 20:41:00,25.5,-9.0,30.00,WSW,248,0.0,0.0,21,33.30,,---,60.16,VWS V14.00,2013-02-05 01:41:00,
2013-02-04 20:45:00,25.5,-9.0,30.00,WSW,248,0.0,2.2,21,33.30,,---,60.16,VWS V14.00,2013-02-05 01:45:00,
2013-02-04 20:46:00,25.5,-9.0,30.00,WSW,248,0.9,0.9,21,33.30,,---,60.16,VWS V14.00,2013-02-05 01:46:00,
2013-02-04 20:47:00,25.5,-9.0,30.00,WSW,248,1.6,1.6,21,33.30,,---,60.16,VWS V14.00,2013-02-05 01:47:00,
2013-02-04 20:52:00,25.7,-8.8,30.00,WSW,248,0.0,1.3,21,33.30,,---,60.16,VWS V14.00,2013-02-05 01:52:00,
2013-02-04 20:57:00,25.9,-5.9,30.00,WSW,248,0.0,1.1,24,33.30,,---,60.16,VWS V14.00,2013-02-05 01:57:00,
2013-02-04 21:02:00,25.7,-8.8,30.00,WSW,248,0.0,0.0,21,33.30,,---,60.16,VWS V14.00,2013-02-05 02:02:00,
2013-02-04 21:03:00,25.7,-8.8,30.00,WSW,248,0.0,0.0,21,33.30,,---,60.16,VWS V14.00,2013-02-05 02:03:00,
2013-02-04 21:08:00,25.9,-5.9,30.00,WSW,248,1.1,1.1,24,33.30,,---,60.16,VWS V14.00,2013-02-05 02:08:00,
2013-02-04 21:09:00,25.9,-5.9,30.00,WSW,248,0.0,1.1,24,33.30,,---,60.16,VWS V14.00,2013-02-05 02:09:00,
2013-02-04 21:11:00,26.1,-5.8,30.00,WSW,248,0.0,0.0,24,33.30,,---,60.16,VWS V14.00,2013-02-05 02:11:00,
2013-02-04 21:13:00,26.1,-5.8,30.00,WSW,248,0.0,0.0,24,33.30,,---,60.16,VWS V14.00,2013-02-05 02:13:00,
2013-02-04 21:16:00,26.2,-5.6,30.00,WSW,248,2.5,2.9,24,33.30,,---,60.16,VWS V14.00,2013-02-05 02:16:00,
2013-02-04 21:19:00,26.4,-5.5,30.00,WSW,248,0.0,0.0,24,33.30,,---,60.16,VWS V14.00,2013-02-05 02:19:00,
2013-02-04 21:23:00,26.6,-5.3,30.00,WSW,248,0.0,0.0,24,33.30,,---,60.16,VWS V14.00,2013-02-05 02:23:00,
2013-02-04 21:24:00,26.6,-5.3,30.00,WSW,248,0.0,0.0,24,33.30,,---,60.16,VWS V14.00,2013-02-05 02:24:00,
2013-02-04 21:25:00,26.6,-5.3,30.00,WSW,248,0.0,0.0,24,33.30,,---,60.16,VWS V14.00,2013-02-05 02:25:00,
2013-02-04 21:30:00,26.8,-6.0,30.00,WSW,248,0.0,0.0,23,33.30,,---,60.16,VWS V14.00,2013-02-05 02:30:00,
2013-02-04 21:31:00,26.8,-6.0,30.00,WSW,248,0.0,0.0,23,33.30,,---,60.16,VWS V14.00,2013-02-05 02:31:00,
2013-02-04 21:32:00,27.0,-5.9,30.00,WSW,248,0.0,0.0,23,33.30,,---,60.16,VWS V14.00,2013-02-05 02:32:00,
2013-02-04 21:35:00,27.0,-5.9,30.00,WSW,248,0.0,0.0,23,33.30,,---,60.16,VWS V14.00,2013-02-05 02:35:00,
2013-02-04 21:37:00,27.0,-5.9,30.00,WSW,248,0.0,0.0,23,33.30,,---,60.16,VWS V14.00,2013-02-05 02:37:00,
2013-02-04 21:43:00,27.1,-5.7,30.00,WSW,248,0.0,0.0,23,33.30,,---,60.16,VWS V14.00,2013-02-05 02:43:00,
2013-02-04 21:49:00,27.3,-5.6,30.00,WSW,248,0.0,0.0,23,33.30,,---,60.16,VWS V14.00,2013-02-05 02:49:00,
2013-02-04 21:53:00,27.5,-5.4,29.97,WSW,248,0.0,0.0,23,33.30,,---,60.16,VWS V14.00,2013-02-05 02:53:00,
2013-02-04 21:54:00,27.5,-5.4,29.97,WSW,248,0.0,0.0,23,33.30,,---,60.16,VWS V14.00,2013-02-05 02:54:00,
2013-02-04 21:56:00,27.5,-5.4,29.97,WSW,248,0.0,0.0,23,33.30,,---,60.16,VWS V14.00,2013-02-05 02:56:00,
2013-02-04 21:59:00,27.5,-5.4,29.97,WSW,248,0.0,0.0,23,33.30,,---,60.16,VWS V14.00,2013-02-05 02:59:00,
2013-02-04 22:04:00,27.7,-5.3,29.97,WSW,248,0.0,0.0,23,33.30,,---,60.16,VWS V14.00,2013-02-05 03:04:00,
2013-02-04 22:07:00,27.9,-5.1,29.97,WSW,248,0.0,0.0,23,33.30,,---,60.16,VWS V14.00,2013-02-05 03:07:00,
2013-02-04 22:09:00,27.9,-5.1,29.97,WSW,248,0.0,0.0,23,33.30,,---,60.16,VWS V14.00,2013-02-05 03:09:00,
2013-02-04 22:15:00,27.9,-5.1,29.97,WSW,248,0.0,0.0,23,33.30,,---,60.16,VWS V14.00,2013-02-05 03:15:00,
2013-02-04 22:16:00,27.9,-5.1,29.97,WSW,248,0.0,0.0,23,33.30,,---,60.16,VWS V14.00,2013-02-05 03:16:00,
2013-02-04 22:21:00,28.0,-5.0,30.00,WSW,248,0.0,0.0,23,33.30,,---,60.16,VWS V14.00,2013-02-05 03:21:00,
2013-02-04 22:26:00,28.0,-5.0,30.00,WSW,248,0.0,0.0,23,33.30,,---,60.16,VWS V14.00,2013-02-05 03:26:00,
2013-02-04 22:31:00,28.0,-5.0,30.00,WSW,248,0.0,0.0,23,33.30,,---,60.16,VWS V14.00,2013-02-05 03:31:00,
2013-02-04 22:34:00,28.0,-5.0,30.00,WSW,248,0.0,0.0,23,33.30,,---,60.16,VWS V14.00,2013-02-05 03:34:00,
2013-02-04 22:37:00,28.2,-4.8,29.97,WSW,248,0.0,0.0,23,33.30,,---,60.16,VWS V14.00,2013-02-05 03:37:00,
2013-02-04 22:39:00,28.2,-4.8,29.97,WSW,248,0.0,0.0,23,33.30,,---,60.16,VWS V14.00,2013-02-05 03:39:00,
2013-02-04 22:40:00,28.2,-4.8,29.97,WSW,248,0.0,0.0,23,33.30,,---,60.16,VWS V14.00,2013-02-05 03:40:00,
2013-02-04 22:42:00,28.2,-4.8,29.97,WSW,248,0.0,0.0,23,33.30,,---,60.16,VWS V14.00,2013-02-05 03:42:00,
2013-02-04 22:47:00,28.4,-4.7,29.97,WSW,248,2.7,2.7,23,33.30,,---,60.16,VWS V14.00,2013-02-05 03:47:00,
2013-02-04 22:48:00,28.4,-4.7,29.97,WSW,248,2.7,2.7,23,33.30,,---,60.16,VWS V14.00,2013-02-05 03:48:00,
2013-02-04 22:52:00,28.4,-4.7,29.97,WSW,248,0.0,0.0,23,33.30,,---,60.16,VWS V14.00,2013-02-05 03:52:00,
2013-02-04 22:53:00,28.4,-4.7,29.97,WSW,248,1.6,3.8,23,33.30,,---,60.16,VWS V14.00,2013-02-05 03:53:00,
2013-02-04 22:55:00,28.2,-4.8,29.97,WSW,248,2.2,2.2,23,33.30,,---,60.16,VWS V14.00,2013-02-05 03:55:00,
2013-02-04 22:59:00,28.2,-4.8,29.97,WSW,248,2.7,2.7,23,33.30,,---,60.16,VWS V14.00,2013-02-05 03:59:00,
2013-02-04 23:00:00,28.2,-4.8,29.97,WSW,248,1.6,3.1,23,33.30,,---,60.16,VWS V14.00,2013-02-05 04:00:00,
2013-02-04 23:06:00,28.0,-5.0,29.97,WSW,248,0.0,2.2,23,33.30,,---,60.16,VWS V14.00,2013-02-05 04:06:00,
2013-02-04 23:10:00,27.9,-5.1,29.97,WSW,248,0.9,2.5,23,33.30,,---,60.16,VWS V14.00,2013-02-05 04:10:00,
2013-02-04 23:12:00,27.9,-5.1,29.97,WSW,248,0.0,0.0,23,33.30,,---,60.16,VWS V14.00,2013-02-05 04:12:00,
2013-02-04 23:17:00,27.9,-5.1,29.97,WSW,248,0.0,0.0,23,33.30,,---,60.16,VWS V14.00,2013-02-05 04:17:00,
2013-02-04 23:22:00,28.0,-5.0,29.97,WSW,248,2.9,2.9,23,33.30,,---,60.16,VWS V14.00,2013-02-05 04:22:00,
2013-02-04 23:27:00,28.0,-5.0,29.97,WSW,248,0.0,0.0,23,33.30,,---,60.16,VWS V14.00,2013-02-05 04:27:00,
2013-02-04 23:28:00,27.9,-5.1,29.97,WSW,248,0.0,0.0,23,33.30,,---,60.16,VWS V14.00,2013-02-05 04:28:00,
2013-02-04 23:32:00,27.9,-5.1,29.97,WSW,248,0.0,0.0,23,33.30,,---,60.16,VWS V14.00,2013-02-05 04:32:00,
2013-02-04 23:37:00,27.9,-5.1,29.94,WSW,248,0.0,0.0,23,33.30,,---,60.16,VWS V14.00,2013-02-05 04:37:00,
2013-02-04 23:42:00,27.9,-5.1,29.94,WSW,248,0.0,0.0,23,33.30,,---,60.16,VWS V14.00,2013-02-05 04:42:00,
2013-02-04 23:48:00,27.9,-5.1,29.94,WSW,248,2.0,3.1,23,33.30,,---,60.16,VWS V14.00,2013-02-05 04:48:00,
2013-02-04 23:52:00,27.9,-5.1,29.97,WSW,248,0.0,0.0,23,33.30,,---,60.16,VWS V14.00,2013-02-05 04:52:00,
2013-02-04 23:53:00,27.9,-5.1,29.97,WSW,248,0.0,0.0,23,33.30,,---,60.16,VWS V14.00,2013-02-05 04:53:00,
2013-02-04 23:55:00,27.9,-5.1,29.97,WSW,248,0.0,0.0,23,33.30,,---,60.16,VWS V14.00,2013-02-05 04:55:00,
2013-02-04 23:59:00,27.9,-5.1,29.97,WSW,248,0.0,0.0,23,33.30,,---,0.00,VWS V14.00,2013-02-05 04:59:00,